ECMWFNIL_sfc_dewp_054.txt.gz
Dewpoint
61 61 62 62 61 62 62 62 62 62 62 62 62 62 62 62 62 62 62 63 62 62 62 62 62 62 63 63 62 62 62 62 62 62 61 61 60 60 60 59 58 59
61 61 61 61 61 61 62 62 62 62 62 62 62 62 62 63 62 63 63 63 62 61 61 61 61 61 62 63 62 62 62 62 62 63 62 61 61 61 60 60 59 58
61 60 60 60 60 61 61 61 61 61 61 61 62 62 63 62 62 63 63 62 61 61 61 61 61 61 62 62 62 62 62 62 62 62 62 62 61 61 61 60 59 59
61 61 60 60 60 61 61 60 60 61 61 61 62 61 62 62 62 62 62 64 62 62 62 62 61 61 62 62 61 62 62 62 62 63 62 62 61 61 61 60 59 59
61 61 60 60 61 60 60 60 60 61 61 62 62 62 61 62 62 61 62 61 61 61 62 62 61 61 62 62 61 61 62 61 61 62 62 61 61 61 61 61 60 59
62 62 61 61 60 60 59 60 61 61 61 60 61 62 62 62 62 61 61 61 61 61 61 61 61 61 61 61 61 61 61 61 61 62 61 61 61 61 62 61 60 59
62 62 61 61 61 60 61 60 61 61 61 62 62 61 62 61 61 61 61 60 60 60 60 60 60 61 61 60 60 61 61 61 61 61 61 60 61 60 61 61 60 59
62 61 60 60 60 60 60 60 60 61 61 62 62 62 62 61 60 60 60 60 60 60 60 60 60 60 60 60 60 60 60 61 61 60 60 60 60 60 60 61 60 60
61 60 60 59 59 60 60 60 60 61 62 62 62 62 61 61 60 59 60 59 59 59 59 59 59 59 59 60 60 60 60 60 60 60 60 59 60 60 61 61 60 59
61 61 60 59 58 59 59 59 60 60 62 62 62 61 60 60 59 58 58 58 58 58 59 59 58 58 59 59 60 60 60 60 60 60 60 59 60 60 60 60 60 59
59 60 60 60 59 59 59 59 60 60 61 61 61 60 59 58 58 57 57 57 57 57 58 58 58 58 58 58 59 60 60 60 60 59 59 59 60 60 61 60 60 59
60 60 60 59 59 59 59 59 60 60 60 60 59 59 58 58 57 57 56 56 57 57 57 57 57 58 57 57 58 59 60 60 59 59 59 59 59 59 59 59 59 59
60 60 60 60 59 59 59 59 59 60 59 59 59 59 58 57 57 57 56 56 55 56 56 57 57 57 57 57 58 59 58 58 58 58 58 58 58 58 58 58 58 59
60 60 60 59 59 59 58 59 59 59 59 59 59 58 58 57 56 56 54 51 50 50 50 51 50 49 49 53 58 58 57 57 57 57 56 56 57 57 57 58 58 58
59 59 59 59 58 58 58 58 58 58 59 59 58 56 57 56 55 52 50 48 47 46 46 46 46 45 45 46 49 56 56 57 56 56 55 54 54 55 57 58 57 57
59 59 58 59 58 58 58 58 58 58 58 58 57 56 55 54 52 50 47 46 44 43 43 43 43 44 44 42 43 49 54 54 54 54 53 52 53 53 55 57 57 57
59 59 58 58 58 58 58 58 58 58 58 57 56 54 53 52 49 47 45 44 43 42 41 41 41 41 39 38 40 45 51 52 52 52 52 52 53 54 55 56 54 55
59 58 58 58 58 58 58 58 57 57 57 56 54 53 51 49 47 45 43 42 41 40 39 39 39 39 37 38 39 41 47 51 51 51 51 52 52 53 53 54 53 53
57 58 57 57 57 57 57 56 56 56 55 54 53 51 48 46 44 42 41 40 39 38 38 38 38 38 38 39 40 41 44 49 52 52 51 50 51 51 51 51 51 51
53 56 56 56 56 56 56 56 55 54 54 52 50 47 44 42 41 40 39 39 38 38 37 38 38 39 38 39 40 42 45 49 53 53 54 54 53 53 52 52 51 49
48 53 53 53 53 53 53 53 52 52 51 49 46 45 42 40 40 39 40 39 38 38 37 37 38 38 38 39 40 42 44 48 52 52 51 50 49 49 48 47 45 43
47 48 50 51 51 51 51 50 50 49 48 48 45 43 42 42 41 41 40 39 39 37 37 36 37 37 37 38 40 42 46 50 48 46 45 43 42 42 41 40 39 37
47 47 48 48 49 49 48 48 48 48 48 47 46 45 45 45 45 44 42 40 39 38 36 36 36 37 37 37 39 43 46 47 44 41 40 39 39 40 40 40 39 37
47 47 47 47 47 47 47 47 47 48 48 47 47 46 46 46 46 45 44 42 40 40 39 37 37 37 36 37 38 40 44 45 42 41 40 39 38 38 38 39 42 44
46 47 47 47 47 47 47 47 47 47 47 47 47 46 46 46 45 43 43 42 41 41 42 39 39 39 37 37 38 40 43 45 44 43 41 40 39 38 38 38 37 39
46 46 46 46 46 47 47 47 47 47 47 47 46 46 45 44 43 42 42 42 42 41 41 40 39 40 39 37 38 38 41 46 46 45 44 44 43 40 39 38 38 37

ECMWFNIL_sfc_dewp_057.txt.gz
Dewpoint
61 61 61 61 61 61 61 61 60 60 61 62 62 62 62 62 62 62 62 62 62 62 62 61 61 61 62 61 61 61 61 61 61 61 61 61 60 59 59 59 58 59
61 61 62 61 61 60 61 62 61 61 61 61 60 60 61 61 61 62 61 61 62 62 61 61 61 61 61 61 61 61 61 61 61 61 60 60 60 59 59 59 59 58
61 61 61 61 60 60 60 61 62 62 61 61 61 61 61 61 61 61 61 61 62 61 61 61 61 61 61 61 61 61 61 61 61 61 61 60 60 60 60 60 59 58
61 61 61 61 60 60 60 60 61 60 61 61 61 61 62 61 61 62 62 62 62 61 60 60 61 61 62 62 62 61 61 61 61 61 61 60 60 60 60 60 59 58
61 61 61 60 60 60 60 60 60 60 60 61 61 61 61 61 61 61 61 61 61 61 60 61 61 61 62 62 61 61 61 61 61 61 61 60 60 60 60 59 58 58
62 62 61 60 60 60 60 60 60 60 60 60 61 61 61 61 61 61 61 61 61 61 61 60 60 61 61 61 61 61 61 61 60 61 61 60 60 60 60 59 59 58
61 62 61 61 60 60 60 60 60 60 60 60 61 61 61 61 61 61 61 61 61 61 61 60 60 60 61 60 60 60 60 60 60 61 61 60 60 60 60 60 59 58
61 62 61 61 60 60 60 60 60 60 60 60 60 61 61 61 61 61 61 60 60 61 61 60 60 60 60 60 60 60 60 60 60 61 60 59 59 60 59 60 59 58
62 62 61 61 60 60 59 60 60 60 61 60 60 61 61 61 61 61 60 60 60 60 60 60 60 60 60 59 59 60 60 59 60 60 59 59 59 59 60 60 59 59
60 61 61 60 60 60 59 59 60 60 61 61 61 61 61 61 61 61 60 60 60 59 60 60 59 59 59 60 59 59 59 59 59 59 59 59 59 60 60 60 60 59
60 60 60 60 59 59 59 58 59 60 61 61 61 61 61 60 60 60 59 59 59 59 59 59 59 59 59 59 59 59 59 59 59 59 59 59 59 60 61 60 59 59
59 60 60 60 59 59 58 58 58 59 59 60 61 60 59 58 59 59 58 59 59 59 59 59 58 59 59 59 59 59 59 59 59 59 59 59 59 59 60 60 60 59
59 60 59 59 59 59 59 59 59 59 59 60 60 59 59 58 58 58 57 57 58 58 58 58 58 58 58 57 58 59 59 59 58 58 58 59 59 59 59 59 59 59
59 59 59 58 59 59 59 59 59 59 59 59 59 59 58 57 57 56 57 57 55 57 56 57 57 56 55 56 58 58 58 58 58 58 58 57 58 58 58 58 59 59
56 58 57 58 59 59 59 59 59 59 58 58 58 58 58 58 57 56 52 51 50 51 51 52 53 51 50 53 56 57 57 58 57 57 57 57 56 57 57 57 57 57
51 56 58 57 58 58 59 59 59 58 58 58 58 58 58 57 56 53 51 49 48 47 47 48 47 46 47 45 49 56 56 57 56 56 56 56 55 55 55 56 56 55
49 51 56 57 58 58 59 58 58 58 58 58 58 58 56 55 53 50 48 47 47 46 45 44 43 43 40 39 42 46 54 54 55 54 54 54 54 54 55 55 53 53
48 50 52 56 57 58 58 58 58 58 57 57 57 56 53 53 51 48 46 45 44 43 42 42 41 40 38 40 42 45 50 53 54 54 52 52 53 53 54 54 53 52
47 48 49 53 57 58 58 57 57 57 57 56 56 55 51 50 48 45 43 42 41 40 40 41 41 39 39 40 42 44 46 49 51 51 51 50 50 51 52 53 52 50
47 47 48 49 54 57 56 56 57 57 56 55 53 50 47 45 43 42 41 40 40 40 41 41 41 40 40 42 44 44 45 48 52 52 51 51 51 51 51 50 49 48
46 47 47 48 48 53 55 55 56 56 54 51 50 48 45 43 42 40 40 40 40 40 40 39 40 39 41 43 44 44 45 46 49 48 46 44 43 43 43 43 42 43
46 46 46 46 47 48 52 53 54 52 49 48 47 46 45 44 42 41 39 39 39 39 38 38 39 39 41 43 43 43 43 46 44 43 41 40 39 38 38 37 37 37
45 46 46 46 46 46 47 49 49 47 46 46 45 45 44 43 41 40 39 38 38 38 38 39 39 39 41 41 41 41 42 42 41 40 40 39 39 40 40 40 39 36
45 45 46 46 46 46 46 46 47 47 46 46 45 44 44 43 43 43 41 40 39 39 40 40 40 40 39 40 40 40 41 41 40 38 37 36 36 36 37 38 41 43
45 45 45 46 46 46 46 46 46 46 46 46 45 44 43 43 43 42 42 42 41 41 43 41 41 41 39 39 40 40 41 41 40 38 37 36 36 36 37 37 38 40
45 45 45 45 46 46 47 47 46 45 45 44 43 43 43 43 43 43 42 42 42 42 42 41 40 40 40 39 40 41 41 42 41 39 38 38 38 37 38 38 38 38

ECMWFNIL_sfc_dewp_063.txt.gz
Dewpoint
62 62 62 62 62 62 62 62 63 62 63 64 63 63 63 63 63 63 63 63 63 63 63 63 64 64 64 65 64 64 63 63 63 64 63 63 63 63 63 63 64 63
62 62 62 62 62 62 62 62 63 63 63 64 64 64 64 63 63 63 63 62 63 63 63 63 64 64 64 64 63 63 64 63 63 63 63 63 62 63 64 63 63 64
62 61 61 61 61 62 62 63 63 63 63 63 63 63 63 63 63 63 63 63 62 63 63 63 63 64 64 64 63 63 63 63 62 63 63 62 63 64 63 64 64 63
62 62 62 62 63 62 62 62 63 63 63 62 62 63 63 63 63 63 64 63 62 63 62 63 64 64 64 63 63 64 63 63 64 63 62 63 63 62 64 63 63 62
60 62 62 62 62 62 62 62 62 62 62 63 62 63 63 63 63 62 63 63 63 62 63 62 63 63 63 63 63 63 63 63 63 63 62 62 62 63 63 63 62 61
57 59 62 62 62 62 62 61 61 62 62 62 63 63 62 63 63 62 63 62 63 63 63 63 63 63 64 63 63 62 63 62 63 62 62 62 62 63 63 63 62 62
55 58 61 63 63 62 62 62 62 62 62 63 63 62 62 62 63 62 62 62 62 62 62 63 62 62 63 64 63 62 63 62 62 62 61 62 63 62 61 62 62 61
54 56 57 60 62 63 62 62 62 62 62 62 62 63 62 62 62 62 62 62 62 62 62 62 62 62 62 63 63 62 62 61 61 61 62 61 62 60 61 62 61 61
53 54 55 56 58 61 62 62 62 62 62 61 62 62 62 62 62 62 62 62 62 62 62 62 62 62 62 62 61 61 61 61 61 61 61 61 61 61 61 61 61 61
51 52 53 55 56 58 60 62 62 62 62 62 61 62 62 62 62 61 62 62 62 62 62 62 62 62 62 62 61 61 62 61 61 61 61 61 61 60 60 61 61 62
50 50 51 52 53 56 57 59 61 61 62 61 61 61 61 62 61 62 62 62 61 62 62 61 61 61 61 61 62 61 61 62 61 61 61 62 62 62 62 61 61 61
49 50 50 51 52 53 56 58 59 61 61 61 61 61 61 61 61 62 61 61 61 60 61 61 61 61 61 61 62 62 61 61 61 61 61 62 62 62 61 62 62 61
47 48 49 50 51 52 54 56 58 60 60 60 61 61 61 61 61 61 61 61 61 61 61 61 61 61 61 60 61 62 61 61 61 61 62 62 62 62 62 62 62 62
46 47 49 49 50 51 52 55 57 58 60 60 61 61 61 60 60 60 61 61 61 61 61 61 61 61 61 60 61 61 61 61 62 62 61 61 62 62 62 62 62 62
46 47 47 48 48 49 50 52 54 57 59 60 60 61 62 61 61 61 61 60 61 61 61 61 61 61 61 61 61 61 61 62 62 61 62 61 61 61 62 62 62 61
45 46 46 47 47 48 49 50 51 54 57 59 60 60 61 61 61 61 61 61 60 60 60 61 61 61 58 55 56 60 61 61 62 62 62 61 61 61 61 61 61 61
45 45 45 45 46 47 48 48 50 53 56 58 59 60 60 61 61 60 60 60 60 60 60 60 60 59 52 48 49 53 60 62 61 62 62 61 61 61 61 61 61 61
44 44 44 45 45 45 46 47 48 50 53 57 59 60 60 61 60 60 60 60 61 60 60 59 59 53 47 47 47 47 53 61 62 62 62 61 60 61 61 62 61 61
44 44 44 44 44 44 45 45 46 47 48 51 56 59 60 60 60 60 60 60 60 59 59 58 57 48 45 45 46 45 47 56 61 62 62 62 62 62 61 61 61 61
44 43 43 43 43 44 44 44 44 45 47 48 49 53 59 59 60 59 59 58 58 58 58 57 56 46 42 43 44 44 44 51 60 62 62 61 61 61 61 61 62 60
44 43 43 43 43 43 43 43 44 44 45 46 46 47 46 50 56 57 56 55 55 56 56 56 54 41 40 40 41 42 42 49 60 60 59 59 59 60 61 61 60 60
44 43 43 43 43 43 43 43 44 44 44 45 45 45 45 46 46 47 47 48 48 50 52 52 50 40 39 39 39 41 43 57 58 57 56 55 55 55 56 58 58 59
43 43 43 43 43 42 42 43 43 44 44 45 44 44 44 44 44 45 47 47 47 48 48 49 48 42 39 40 40 41 48 56 55 53 52 52 51 51 51 52 54 55
43 43 43 43 43 42 43 43 43 44 44 44 44 44 43 44 44 44 45 45 45 46 45 46 45 42 39 40 40 42 49 54 53 51 50 49 48 48 49 49 48 48
42 43 43 43 43 43 43 43 43 44 44 44 44 44 43 44 44 43 43 44 44 44 44 44 44 43 38 38 39 40 48 52 50 49 48 47 46 45 46 47 47 45
42 43 43 43 42 43 44 43 43 43 43 43 43 43 44 44 44 43 42 42 43 43 43 43 44 43 40 38 38 38 39 50 48 47 46 45 44 43 45 46 46 46

ECMWFNIL_sfc_dewp_066.txt.gz
Dewpoint
63 62 63 62 62 62 62 62 62 63 63 63 62 63 64 66 64 64 64 64 64 65 66 66 65 65 64 64 64 65 64 64 65 65 65 65 65 64 65 64 64 63
62 63 63 62 62 62 62 63 63 62 63 63 63 63 63 64 65 64 64 65 64 64 64 65 64 64 64 63 64 64 64 65 64 64 64 64 62 64 65 65 64 64
60 61 61 62 62 63 63 63 63 63 63 62 63 63 64 64 64 64 64 64 63 64 63 64 64 64 64 64 64 65 64 65 64 65 65 63 65 64 65 65 64 64
58 59 60 61 62 63 62 62 63 63 63 63 63 63 63 63 63 63 64 64 64 64 63 63 64 64 64 63 64 64 65 65 65 65 64 64 64 62 64 65 64 63
57 57 58 59 61 62 63 62 62 62 63 63 63 63 63 63 63 62 63 63 63 63 63 63 63 63 64 63 64 64 65 65 65 65 64 64 63 63 64 65 64 64
56 55 56 58 59 61 62 63 62 62 62 63 63 62 62 63 62 62 63 63 63 63 62 62 62 63 63 62 63 63 64 64 64 63 63 62 62 63 63 64 62 62
54 55 56 57 58 60 61 62 63 63 62 62 62 62 62 62 62 62 62 62 62 62 62 62 62 62 63 63 64 63 65 65 64 63 62 63 63 63 64 62 62 62
52 54 54 55 57 59 59 59 61 62 63 62 62 62 62 62 61 62 62 62 61 61 61 62 63 62 62 63 63 64 63 64 63 63 62 62 63 62 62 62 63 61
51 52 52 54 55 56 57 57 59 60 61 62 62 62 62 62 62 61 61 61 61 61 61 62 63 62 63 62 63 63 63 64 63 63 62 62 63 63 62 62 63 63
51 51 52 52 53 54 55 56 56 58 59 61 62 62 62 62 62 61 61 61 61 61 61 61 63 62 63 63 62 62 63 63 63 63 63 62 62 61 61 61 61 62
50 50 50 51 52 52 54 54 55 56 58 59 61 61 61 62 62 62 62 61 62 61 61 61 62 62 62 63 63 64 63 63 62 62 63 62 62 61 61 61 61 61
49 49 49 50 50 51 52 53 54 55 56 58 59 60 60 61 61 62 61 60 60 61 60 60 62 62 61 62 62 63 64 64 63 62 62 61 62 62 62 62 61 61
48 48 48 48 49 50 51 51 52 53 54 55 58 60 61 61 61 61 61 61 61 61 61 61 61 61 63 62 62 62 62 62 62 62 62 62 62 62 63 62 62 62
47 48 47 47 47 48 49 51 51 52 53 55 56 58 60 60 61 61 61 60 61 61 61 61 61 61 61 62 62 62 62 62 63 62 62 62 63 62 63 63 62 63
47 47 47 46 46 47 48 49 49 51 52 54 56 57 59 60 61 60 61 60 61 62 61 61 61 62 61 62 61 61 62 62 62 61 61 62 62 63 63 63 63 64
45 46 45 45 45 45 46 47 47 49 50 51 53 56 58 59 60 61 60 61 61 61 62 61 62 63 60 55 55 61 62 62 63 61 62 62 62 61 60 62 61 61
45 44 44 44 44 44 45 45 46 47 48 49 50 52 55 58 60 60 60 61 61 60 60 61 63 61 55 49 50 53 60 63 62 63 62 62 62 62 62 60 61 62
44 44 44 44 44 43 44 44 45 45 46 47 48 49 50 53 57 60 60 61 62 61 61 62 61 57 50 48 49 48 55 62 62 62 62 62 62 61 59 60 62 63
43 43 43 43 43 43 44 44 44 44 45 45 46 47 48 49 49 51 53 57 59 60 61 62 63 54 47 47 47 47 47 56 61 62 62 62 60 61 60 60 60 60
43 43 43 43 43 44 44 43 43 44 45 45 45 46 46 46 47 48 49 50 51 53 56 60 57 41 40 41 42 43 44 49 61 62 62 62 60 59 61 61 61 61
42 43 43 43 43 43 44 43 43 44 44 44 44 45 45 45 45 46 46 47 47 49 51 54 50 39 38 39 40 40 41 42 60 60 61 60 60 60 60 61 61 62
41 42 42 42 43 43 43 43 43 43 43 44 44 44 44 45 44 44 44 44 45 45 46 49 50 39 38 38 39 40 40 51 59 59 60 59 61 61 61 60 61 61
40 41 42 42 43 43 42 43 43 43 43 43 43 43 43 43 43 43 44 44 43 43 44 45 47 42 38 37 38 39 40 53 59 59 60 60 60 61 61 61 62 61
39 40 41 42 42 42 43 44 43 43 42 42 42 42 42 42 43 42 44 44 43 43 42 43 43 43 39 38 38 39 41 52 59 59 59 58 58 59 59 59 57 54
39 40 41 41 41 41 42 43 43 44 43 43 42 42 42 41 42 42 42 43 43 43 43 43 43 43 39 37 38 38 46 52 54 57 57 56 56 56 56 56 55 52
41 41 41 40 40 41 41 41 42 43 43 43 43 42 42 41 41 40 41 42 43 43 43 42 42 42 41 37 38 38 39 50 53 52 55 55 55 53 53 54 54 54

ECMWFNIL_sfc_dewp_069.txt.gz
Dewpoint
60 60 61 62 62 63 62 62 62 63 62 62 62 63 63 64 63 65 65 65 66 65 66 66 65 65 65 65 66 66 66 66 66 65 64 64 65 65 64 64 64 65
59 59 60 61 60 62 64 64 63 62 63 63 62 62 63 64 64 64 65 65 65 65 65 65 65 65 65 65 65 66 65 66 64 65 64 64 65 64 64 65 64 65
58 58 59 60 60 61 62 64 64 64 63 62 63 63 63 63 64 64 64 64 63 66 66 65 65 67 65 65 65 64 64 65 64 65 64 66 65 64 65 65 65 64
56 57 58 59 60 61 61 62 63 63 63 63 63 63 64 64 64 64 64 64 64 63 65 63 64 63 63 63 64 65 64 63 63 64 64 64 64 65 65 65 65 64
55 55 56 57 58 59 60 61 62 63 63 63 63 63 63 63 64 64 64 64 64 64 64 64 64 64 64 63 63 64 65 65 64 64 65 64 64 63 63 65 64 63
54 52 54 55 56 57 58 59 60 61 62 64 63 63 63 63 63 63 62 62 63 65 63 64 64 64 63 63 63 63 64 65 64 64 64 64 64 64 64 63 63 63
53 53 54 53 55 55 56 58 58 59 60 61 61 63 62 62 62 61 61 62 61 62 62 63 63 63 63 63 63 63 64 64 64 63 63 63 63 63 65 63 64 63
52 53 52 52 54 54 54 54 55 56 58 58 60 60 62 62 61 62 62 61 61 61 61 62 63 61 62 62 63 63 63 63 63 61 61 62 63 61 64 64 63 62
52 51 51 52 52 53 53 53 54 55 55 56 57 58 60 61 62 62 62 61 61 61 61 61 61 61 63 62 63 62 62 63 62 62 62 63 62 63 62 63 63 62
51 51 51 51 51 51 52 53 53 54 54 55 55 56 57 59 61 62 62 62 62 60 61 60 61 62 63 62 61 60 62 62 62 62 62 61 61 62 63 62 62 62
51 50 50 50 50 50 51 52 52 52 53 53 54 55 56 57 59 60 61 62 62 61 61 60 60 61 61 62 62 62 62 62 62 62 62 62 61 63 62 62 62 62
49 49 49 49 49 49 50 50 51 51 51 52 52 54 55 56 58 59 60 60 61 61 61 61 60 62 61 62 61 62 63 63 63 63 62 63 62 64 63 62 62 62
48 48 48 48 48 48 49 49 49 50 50 50 51 52 54 55 57 58 60 61 61 61 61 62 61 62 62 62 62 61 63 63 64 63 63 62 62 62 62 62 62 63
47 47 47 47 47 47 47 48 48 48 49 49 50 50 51 52 53 56 58 60 61 61 62 62 61 63 62 63 62 62 62 62 63 64 63 62 62 62 62 63 62 61
47 47 47 47 46 46 46 46 47 47 48 48 48 49 50 49 51 52 55 58 60 62 62 62 62 62 61 61 64 62 62 62 63 61 62 62 62 63 63 63 62 63
45 46 45 46 46 45 45 45 45 46 47 46 46 47 47 48 48 50 51 53 56 58 59 60 60 60 56 54 54 60 62 61 61 61 61 61 61 62 62 63 63 62
44 44 44 44 45 45 45 45 44 46 46 46 46 46 47 46 46 47 48 50 51 54 56 58 54 44 40 40 47 51 59 63 62 61 61 61 61 61 61 63 63 63
43 43 43 44 44 44 44 44 44 44 44 45 45 45 46 46 45 45 46 47 48 50 52 54 48 41 39 39 40 40 45 56 62 61 62 61 61 62 63 63 62 62
41 42 43 43 43 43 44 44 44 44 43 44 44 45 45 44 44 44 45 45 45 45 47 52 46 40 38 38 38 39 39 45 57 61 62 63 62 61 61 61 61 62
41 41 42 42 43 43 44 43 43 43 43 43 43 44 44 44 44 44 44 44 44 44 45 48 45 40 38 38 38 38 38 40 54 58 61 61 62 61 60 61 61 61
40 40 41 41 42 42 43 43 44 44 44 44 43 43 43 42 42 43 43 43 43 43 44 44 46 39 38 37 38 38 38 40 53 57 60 61 61 62 62 62 62 62
38 39 40 40 40 41 42 42 43 43 44 44 44 43 43 42 42 42 42 43 43 43 42 42 44 39 38 37 37 37 38 49 54 57 59 60 61 61 60 62 60 60
38 39 39 39 39 39 40 41 42 42 43 43 43 43 43 43 43 42 42 42 42 42 42 42 43 41 38 38 37 37 40 48 53 57 59 59 60 61 62 61 61 61
37 37 38 38 38 39 39 40 41 41 41 42 41 42 42 42 42 43 43 43 42 42 43 42 42 41 39 38 37 37 39 46 51 55 57 59 60 61 61 62 62 59
37 38 37 37 38 39 40 39 39 40 41 41 41 41 41 41 41 41 42 42 43 43 44 43 42 42 39 38 38 38 39 45 51 53 54 56 59 60 60 60 59 57
36 37 38 38 37 38 38 38 39 39 40 40 40 39 39 40 40 40 40 41 41 41 43 44 42 41 41 39 38 38 38 43 51 50 50 51 54 59 59 59 60 59

ECMWFNIL_sfc_dewp_072.txt.gz
Dewpoint
58 58 58 59 59 60 61 62 63 63 63 63 63 63 63 63 64 65 66 67 65 65 65 64 64 64 64 64 64 65 65 65 64 64 64 64 63 63 63 64 64 64
58 58 58 59 59 59 60 61 61 62 63 64 64 63 64 63 64 64 65 66 66 65 65 64 64 64 64 64 64 63 64 64 63 65 64 63 63 63 62 63 64 64
56 57 57 57 57 58 59 59 60 61 62 63 64 64 63 63 63 64 64 64 65 66 64 64 64 64 64 63 63 64 64 64 64 64 64 64 64 63 63 64 64 64
55 55 55 56 56 55 56 57 58 59 59 60 60 61 62 64 63 63 64 64 64 65 65 64 63 64 64 63 64 63 63 64 64 63 63 64 64 64 64 64 63 63
54 54 54 54 55 55 55 55 55 56 56 57 58 59 59 60 61 62 63 63 63 64 64 64 64 64 64 64 64 63 63 64 63 64 64 64 63 63 63 63 63 63
53 52 52 52 53 54 54 53 53 53 54 55 56 57 58 58 59 59 61 62 62 63 63 63 62 63 63 63 63 63 64 62 63 64 64 63 63 63 63 63 63 62
52 52 52 52 52 53 53 52 53 53 53 54 54 55 56 56 57 57 58 60 60 61 61 62 63 63 63 62 62 62 63 63 63 62 62 62 62 62 63 62 62 63
51 51 51 51 52 52 52 51 51 52 52 52 52 53 54 54 55 56 57 58 59 61 62 61 62 62 63 62 62 62 62 62 62 62 61 62 62 62 62 62 62 61
50 50 50 50 50 50 50 50 51 51 51 51 50 51 52 52 54 55 56 57 58 59 62 60 62 62 63 63 62 62 61 61 62 62 61 61 62 62 63 62 62 61
49 50 50 49 49 49 50 50 50 50 50 50 49 50 50 51 52 52 53 54 56 58 60 61 61 61 62 62 61 61 62 62 62 63 62 62 62 62 62 62 61 61
49 49 49 49 49 49 49 48 49 48 49 48 48 48 48 49 49 50 51 52 54 56 59 60 62 61 61 61 62 62 62 62 61 61 62 61 61 61 61 62 62 61
48 48 48 48 48 48 48 47 48 47 47 48 47 46 47 48 47 47 49 50 52 54 56 59 60 60 57 55 57 61 62 62 61 61 62 61 61 61 61 61 62 61
47 47 47 47 47 47 47 46 46 47 46 46 46 46 46 46 46 46 47 48 49 51 55 51 47 46 46 46 47 51 57 61 61 61 61 62 62 62 61 61 61 61
46 47 46 46 46 46 46 46 46 45 45 45 46 45 45 45 45 45 45 46 46 47 52 50 46 44 43 42 43 45 49 54 61 61 62 61 61 61 61 61 61 61
46 46 46 45 45 45 45 45 45 45 45 44 44 44 46 44 44 44 44 44 44 45 47 49 45 44 43 41 41 42 44 49 53 59 61 60 60 60 61 61 61 60
43 44 44 44 44 44 44 45 44 45 44 44 43 44 43 44 43 44 43 43 44 44 45 48 44 42 43 41 41 41 42 44 48 54 59 61 61 61 61 61 62 61
42 42 43 42 43 43 44 43 43 44 44 44 45 44 44 43 43 43 43 43 43 43 44 46 44 42 40 38 38 39 41 41 44 50 55 59 61 60 60 60 61 62
41 41 41 42 42 41 42 42 43 43 43 43 44 44 44 43 43 43 43 43 43 42 43 45 44 42 39 39 38 38 39 41 42 47 53 57 59 60 61 60 60 61
39 39 40 40 40 41 42 42 42 42 42 43 43 44 44 44 43 43 43 43 43 42 43 43 43 40 39 39 38 38 38 39 42 46 52 55 57 59 60 61 61 61
38 38 39 39 40 40 41 40 41 41 42 42 43 42 43 43 43 44 43 43 43 42 43 43 43 41 39 39 39 38 38 38 42 47 52 55 57 58 59 60 60 59
37 37 38 39 39 39 40 39 41 41 41 41 41 41 42 42 42 42 43 43 43 43 42 43 43 40 39 38 38 38 38 39 44 49 53 55 57 58 59 60 60 60
37 37 38 37 38 38 38 38 40 40 40 41 41 41 41 41 41 42 41 41 42 43 42 42 42 39 38 38 38 38 38 41 42 47 52 54 56 58 59 60 61 61
36 36 37 37 37 37 37 38 39 39 40 41 40 40 40 40 40 41 40 40 40 41 41 41 40 40 38 38 38 38 39 40 43 47 50 52 53 54 57 60 60 60
34 35 35 36 36 37 37 37 37 38 39 40 39 39 39 39 40 39 39 40 40 40 40 40 40 40 38 38 38 38 39 40 42 43 45 47 50 52 54 58 60 59
35 35 35 35 35 37 37 36 36 37 38 38 39 38 38 39 39 38 39 39 39 40 41 40 40 40 38 38 38 38 39 40 41 41 42 44 49 47 48 49 50 49
35 35 36 34 34 36 37 36 35 34 36 37 37 36 37 38 38 38 38 38 39 39 39 40 40 39 39 38 38 38 38 40 41 41 40 42 44 44 45 46 46 46

ECMWFNIL_sfc_dewp_078.txt.gz
Dewpoint
53 54 53 53 54 54 52 52 52 52 52 52 52 52 53 53 54 55 57 58 59 60 62 63 63 62 62 62 62 62 62 62 63 63 63 63 62 62 62 62 61 61
51 52 52 52 52 52 52 52 51 51 51 51 51 51 52 52 52 52 53 55 56 57 59 59 59 60 61 61 61 60 60 61 61 62 62 62 62 62 62 62 61 62
50 50 50 50 49 49 50 51 52 50 50 50 50 50 51 51 50 50 51 52 53 56 52 51 52 53 54 58 60 60 60 61 62 62 62 62 62 62 62 62 61 61
50 50 50 49 49 48 49 49 49 48 48 48 48 49 49 48 48 49 49 51 52 48 47 48 49 49 50 51 53 57 59 61 62 62 62 62 62 62 62 62 62 62
48 48 49 49 48 48 48 48 47 47 46 47 46 47 47 46 47 47 48 49 50 46 46 46 46 47 47 47 48 51 52 54 57 59 60 61 61 62 62 61 61 61
48 48 48 48 47 47 46 47 46 46 46 46 45 46 45 45 45 45 46 47 48 45 43 44 44 44 45 44 46 46 47 49 50 51 53 56 60 62 62 62 61 61
47 47 47 47 46 46 46 46 46 46 45 45 45 44 44 44 44 44 44 45 47 45 42 42 42 42 41 42 42 42 43 44 46 48 50 51 55 58 61 62 61 61
46 47 47 47 46 46 46 46 46 45 45 45 44 44 44 44 44 44 43 43 45 45 42 41 41 41 41 41 41 41 41 42 43 43 45 47 51 53 56 60 61 61
45 45 46 46 46 46 45 46 46 46 45 44 44 44 44 44 43 43 43 43 43 45 42 41 41 41 41 40 40 40 40 41 41 41 42 44 47 50 52 55 58 60
44 44 44 44 44 44 45 45 46 46 46 44 44 44 43 44 44 43 42 42 42 43 43 41 40 40 40 40 40 40 40 40 40 41 41 42 44 46 50 52 55 58
43 43 42 43 43 43 43 44 44 45 46 45 44 44 44 43 43 43 42 42 43 42 41 40 39 39 39 39 39 39 40 40 40 41 41 41 42 44 48 50 53 56
43 43 42 42 42 42 42 42 43 43 43 44 44 44 44 44 43 42 43 41 42 42 40 39 39 39 39 39 39 39 39 40 40 41 41 42 42 43 44 47 51 54
43 43 43 42 42 42 43 42 42 42 42 43 43 42 42 43 43 42 42 41 42 41 41 40 39 39 39 39 39 39 39 39 40 41 41 42 43 43 44 46 49 53
43 43 43 43 43 42 42 42 42 41 41 42 42 41 41 41 42 42 41 41 41 41 41 41 39 39 39 39 39 39 39 39 40 41 42 42 43 44 45 47 50 54
42 43 43 42 42 41 41 42 42 42 41 41 41 41 42 41 41 41 40 40 40 40 40 40 39 39 39 39 39 39 39 40 40 41 42 43 44 46 47 49 52 54
38 39 40 41 41 41 40 41 41 42 41 40 40 40 40 41 40 40 40 40 39 39 39 40 39 39 41 40 40 39 39 40 40 41 41 42 43 44 47 47 48 48
36 36 36 36 38 39 40 40 40 41 41 40 40 40 40 40 39 39 39 39 39 39 38 39 39 39 38 38 38 38 40 40 40 40 41 41 42 43 44 45 45 46
35 34 34 34 35 35 37 38 39 40 41 40 39 39 39 39 39 39 39 39 39 38 38 39 38 39 37 38 38 38 39 40 39 40 41 40 41 41 43 43 43 44
34 33 33 33 34 35 35 36 37 38 39 40 39 39 39 39 39 39 39 39 39 38 38 38 38 39 37 38 37 37 38 39 39 40 40 40 40 40 41 41 42 43
34 33 32 33 33 34 34 35 36 36 37 40 40 38 38 38 38 38 38 38 39 38 38 38 38 39 37 37 37 37 37 38 39 39 40 39 39 39 40 41 42 42
35 33 33 32 33 33 33 34 34 35 36 37 38 38 38 37 37 37 38 38 38 38 38 37 38 38 37 37 37 37 37 38 38 39 39 39 38 39 39 39 40 42
35 33 33 32 32 32 33 33 33 34 34 35 36 36 38 37 37 37 37 37 37 37 37 36 37 37 37 37 37 37 38 38 37 37 38 39 38 38 38 38 39 40
35 34 34 33 33 33 32 33 33 34 35 36 34 34 35 37 37 36 36 37 37 36 36 35 36 37 36 36 37 37 38 37 37 36 37 38 38 38 37 37 38 40
35 34 34 34 33 33 33 33 33 33 34 36 34 33 33 35 37 35 34 35 36 35 36 35 35 36 36 36 36 37 38 37 36 36 36 37 37 37 37 37 38 42
35 34 33 33 33 34 34 33 33 34 34 33 33 33 33 33 37 35 34 33 34 35 37 35 35 36 36 35 36 36 37 37 37 36 36 36 37 36 36 37 37 39
36 36 35 33 33 33 34 34 35 33 33 32 32 32 31 32 32 34 33 33 33 33 34 34 34 34 36 35 36 36 36 37 37 36 36 36 36 36 36 36 37 37

ECMWFNIL_sfc_dewp_081.txt.gz
Dewpoint
50 51 50 50 50 51 51 49 49 49 49 49 48 48 48 48 49 49 50 52 48 48 48 48 49 48 50 49 51 54 57 59 61 62 62 62 62 62 62 62 62 62
49 50 50 49 49 49 49 48 47 47 47 47 47 47 47 48 48 48 49 49 46 46 46 46 46 45 47 47 48 51 52 53 55 57 58 60 61 62 62 62 62 62
48 48 47 47 47 48 47 46 46 46 46 46 46 46 47 48 47 47 49 48 45 44 45 44 44 44 44 44 46 47 48 50 50 51 53 55 58 60 61 62 62 62
47 47 47 47 47 47 46 45 45 45 45 45 45 45 46 46 45 45 47 48 45 43 43 43 42 42 42 42 43 45 45 46 46 47 49 51 53 56 58 60 61 61
47 46 46 46 47 47 46 45 44 44 44 44 44 45 44 43 44 44 44 46 45 43 42 42 42 42 41 41 41 42 43 44 44 44 45 47 49 51 53 56 58 59
47 47 47 47 47 46 45 45 45 44 44 44 44 44 43 43 43 43 44 44 44 43 41 41 40 41 41 40 40 40 41 42 42 42 42 43 45 46 49 52 54 56
46 47 47 47 46 47 46 45 45 46 44 44 44 44 43 42 42 43 43 43 42 41 40 40 40 40 40 39 39 39 40 40 41 41 41 42 43 43 45 47 49 51
44 45 46 46 46 47 47 46 45 45 45 44 43 44 43 42 42 42 43 42 42 41 40 39 39 39 39 39 39 39 39 40 40 40 41 41 42 42 43 44 45 47
43 43 43 43 44 44 44 46 47 46 45 44 44 44 44 43 42 42 42 42 41 40 40 39 39 39 39 39 39 39 39 39 40 40 40 41 41 42 42 43 44 46
42 43 42 42 42 42 42 43 43 44 46 44 44 44 43 42 42 41 41 41 40 40 40 39 39 39 39 39 38 39 39 39 39 40 41 41 41 42 43 44 44 45
42 42 42 42 42 42 42 42 42 42 43 42 42 42 43 42 42 42 40 40 40 40 40 39 39 39 39 38 39 39 39 39 39 40 41 41 42 42 45 44 44 45
42 42 42 43 43 42 41 41 42 42 41 41 41 41 41 41 41 40 41 39 39 39 39 39 38 38 38 38 38 38 39 39 39 40 41 41 42 43 43 44 46 46
42 42 42 42 42 42 43 42 41 41 41 41 41 40 40 40 40 40 40 39 39 39 39 39 38 38 38 38 38 38 39 39 39 40 40 41 41 42 42 43 44 45
42 42 42 42 42 42 42 42 41 41 41 41 41 40 40 40 40 39 39 39 39 39 39 39 38 38 38 38 38 38 38 39 39 39 40 40 40 40 41 42 42 42
38 39 39 40 40 40 41 41 42 41 40 40 40 40 42 40 40 40 39 39 38 38 38 39 38 38 39 38 38 38 38 39 39 39 39 39 38 39 39 40 41 41
36 37 36 37 38 39 39 40 41 41 40 40 40 40 40 41 39 40 39 39 38 38 38 38 38 38 40 40 39 38 38 39 39 38 39 38 38 38 38 39 40 40
35 35 35 36 37 37 38 39 40 40 39 39 39 39 39 40 39 39 38 39 38 38 37 38 38 38 38 37 38 38 39 38 38 38 38 38 38 38 38 38 39 39
34 34 34 35 35 36 36 37 38 39 39 38 38 38 38 38 38 38 38 38 38 37 37 37 37 38 36 37 37 37 38 38 37 37 38 38 38 38 38 38 37 38
33 33 33 33 34 35 35 35 35 36 37 38 38 39 37 36 37 37 37 38 38 37 37 37 36 38 36 37 37 37 37 38 37 37 37 37 38 38 38 37 37 38
32 32 32 33 33 33 34 34 34 34 34 36 37 37 37 36 35 35 36 37 37 36 36 36 35 37 36 36 36 36 37 37 36 36 36 36 37 38 37 37 36 37
33 33 32 33 33 33 33 33 34 34 34 35 34 34 35 35 35 34 35 36 36 36 36 35 35 37 36 36 36 36 37 38 37 36 36 36 37 37 37 36 36 37
33 32 32 32 32 32 32 32 32 33 33 34 34 32 33 34 35 34 34 33 34 34 35 34 34 35 35 36 36 36 37 37 36 36 36 36 36 36 36 36 36 37
33 33 33 32 33 32 32 32 32 32 32 35 31 31 31 32 34 33 34 33 34 34 34 33 33 35 35 35 36 36 37 36 36 36 35 35 35 36 36 35 36 37
33 33 33 33 32 32 32 32 32 31 32 33 31 31 30 31 34 32 32 33 33 33 34 33 33 35 36 35 36 36 37 36 35 35 35 35 35 35 35 35 36 40
33 33 32 32 32 32 32 32 31 32 32 31 31 30 31 31 35 31 31 31 32 33 36 33 33 35 36 35 36 36 37 36 35 34 34 34 34 34 34 35 35 37
35 35 33 33 32 32 32 32 33 30 31 30 30 31 30 30 31 31 31 31 31 31 32 32 33 34 36 35 36 36 36 37 35 34 34 34 34 34 34 34 34 34

ECMWFNIL_sfc_dewp_084.txt.gz
Dewpoint
49 49 48 47 47 47 46 45 45 45 45 46 46 46 46 46 48 49 47 45 45 44 44 44 44 44 44 44 44 47 47 48 48 48 49 52 53 54 56 57 59 61
47 49 49 47 46 46 45 45 45 45 44 45 45 45 45 46 46 47 48 45 44 43 42 42 42 42 42 42 42 44 45 45 46 47 48 48 50 51 52 54 55 58
46 46 46 45 45 45 45 45 45 44 44 44 44 44 44 45 45 46 46 43 41 41 41 41 41 41 41 41 41 42 42 43 43 44 45 46 46 48 49 50 52 54
46 46 46 46 45 45 45 44 44 44 44 44 43 44 44 45 44 45 43 42 41 40 41 41 41 40 40 40 40 41 41 41 42 42 42 43 44 45 46 47 48 49
46 46 46 46 46 45 45 44 44 44 44 44 43 44 43 43 44 43 42 41 41 40 40 40 40 40 40 40 40 40 41 41 41 41 42 42 43 44 44 45 45 46
46 47 48 47 46 45 45 44 44 44 44 43 43 43 42 43 43 42 42 41 41 40 40 40 40 40 40 39 40 40 40 40 41 41 41 42 42 43 44 44 44 45
44 45 45 46 46 47 45 45 45 46 44 44 43 43 42 42 42 41 41 41 40 40 39 39 39 39 40 39 39 39 39 40 40 41 41 41 42 42 43 43 44 44
43 43 43 43 43 43 44 45 45 44 45 44 43 43 42 41 41 41 41 40 40 39 39 38 39 39 39 39 39 39 39 40 40 40 40 41 42 41 42 43 44 44
42 42 42 42 42 42 42 42 42 42 43 42 42 42 42 42 41 40 40 40 39 39 38 38 38 38 39 38 38 38 38 39 40 40 40 41 41 41 42 42 43 44
42 42 42 41 41 42 42 42 42 42 43 41 41 41 41 41 41 40 40 39 39 38 38 38 38 38 38 38 38 38 38 38 39 40 40 40 40 40 40 41 41 42
42 42 42 42 41 41 41 41 41 41 42 41 41 40 40 40 40 41 39 39 39 38 38 38 38 38 38 38 38 38 38 39 39 39 40 39 39 39 41 39 40 41
42 42 42 42 43 42 42 41 41 41 41 41 41 40 40 40 40 39 40 38 38 38 38 38 38 38 38 37 37 38 38 39 39 38 39 39 39 39 39 39 39 39
41 41 41 41 41 42 42 41 41 41 41 41 42 40 40 39 40 39 40 39 38 38 38 38 38 38 38 38 38 38 38 38 38 38 38 38 38 39 39 39 39 39
39 40 41 41 41 41 41 41 40 40 40 41 41 40 40 39 39 39 39 39 39 38 38 39 37 37 37 37 38 38 38 38 38 38 37 38 39 38 39 38 38 38
38 39 39 40 40 40 40 40 40 40 39 39 39 39 41 40 39 39 39 38 38 38 37 38 37 37 38 38 37 37 38 38 37 37 37 37 37 37 38 38 38 38
37 38 38 38 38 38 39 39 39 39 39 38 38 38 38 39 38 39 38 38 37 37 37 37 37 37 39 38 38 38 38 38 37 37 37 37 37 37 37 37 38 37
36 36 36 36 36 36 37 37 37 38 38 37 38 37 37 37 36 36 37 37 37 36 36 37 37 37 37 36 37 38 38 38 37 36 37 36 36 36 36 37 37 37
34 34 34 34 35 35 35 35 35 35 35 35 36 37 37 36 35 35 35 36 37 36 36 36 36 38 36 37 37 37 38 37 37 36 36 36 36 36 36 36 36 36
33 33 33 34 34 34 34 34 33 33 33 34 34 36 35 35 34 34 34 35 35 35 36 35 35 37 36 36 37 36 37 38 36 36 36 36 36 36 36 35 35 36
33 33 33 33 33 33 33 32 32 32 33 34 34 34 34 34 34 34 34 34 35 34 35 35 34 37 36 36 36 36 36 37 36 36 36 35 35 35 35 35 35 35
33 33 33 32 32 32 32 32 32 32 32 34 32 32 32 33 33 33 34 35 33 34 35 35 34 36 36 36 36 36 36 36 36 35 35 35 35 35 35 35 35 36
32 32 32 32 32 32 32 31 31 32 32 33 33 31 32 32 33 33 33 32 33 33 34 34 34 35 36 36 36 36 37 37 35 35 35 35 35 35 35 34 35 36
33 33 33 32 32 32 31 31 31 31 32 35 31 31 31 31 33 32 33 32 33 33 34 33 34 35 36 36 36 36 37 36 35 35 35 35 35 35 34 34 34 35
34 34 34 34 32 32 31 31 32 32 32 33 31 30 31 31 34 31 32 33 33 33 36 34 34 36 36 36 36 36 38 36 35 35 34 35 34 35 35 34 34 39
34 34 33 33 33 32 33 32 32 33 34 32 31 31 31 31 35 31 31 32 33 34 36 34 34 36 36 36 36 36 37 36 35 34 34 34 34 34 34 34 34 36
36 36 34 33 32 32 33 33 35 31 31 31 31 31 31 31 31 31 31 32 32 33 34 34 35 35 37 36 36 36 36 37 36 35 35 34 34 34 33 33 34 34

ECMWFNIL_sfc_dewp_087.txt.gz
Dewpoint
49 49 48 47 47 47 48 46 46 46 46 46 46 47 47 47 46 46 46 46 46 45 45 45 45 45 46 46 46 47 46 47 47 46 47 48 48 49 49 49 51 51
49 49 48 47 47 47 47 47 46 45 46 46 46 46 47 46 46 45 45 45 45 45 44 45 45 44 44 44 44 45 44 45 45 45 45 46 46 47 47 48 49 49
48 48 47 47 46 47 47 46 46 45 45 45 46 46 45 45 45 44 44 44 44 44 44 44 44 44 43 43 44 44 44 44 44 44 45 45 45 46 46 47 47 48
48 47 47 46 46 45 46 45 45 44 44 44 45 45 44 45 44 44 43 43 42 42 43 43 43 43 43 43 43 42 44 43 43 44 44 44 45 45 46 46 46 46
48 47 47 47 46 45 45 44 43 43 43 43 44 44 44 43 42 42 42 42 42 41 41 42 42 42 42 42 42 42 42 42 43 43 43 44 44 45 45 45 45 45
48 47 47 47 46 46 45 44 43 43 42 43 43 43 43 43 42 41 41 41 40 40 40 41 40 41 41 41 41 41 41 41 42 42 42 43 43 44 44 44 44 44
47 47 46 44 45 44 44 43 43 43 43 43 43 42 42 42 42 41 40 40 39 39 39 40 40 40 40 41 40 41 41 41 41 40 41 41 42 41 41 43 43 43
45 45 43 44 44 44 44 42 43 43 43 42 43 42 42 40 40 41 40 40 39 38 39 38 38 39 40 40 40 40 40 41 41 40 40 40 41 39 40 41 42 41
44 43 43 43 43 43 43 43 43 43 42 42 41 42 42 41 40 40 40 39 38 38 38 38 38 38 40 40 40 40 39 40 40 40 40 40 39 39 38 40 40 41
43 43 43 43 43 43 43 43 43 42 41 41 41 41 41 42 41 39 39 39 38 37 37 37 37 38 38 38 39 39 38 38 39 39 39 39 40 39 39 39 40 40
44 43 43 43 43 43 43 42 42 42 41 40 41 40 40 40 40 39 39 38 39 37 36 37 38 38 37 37 39 39 39 39 39 39 40 39 40 39 40 39 39 39
43 43 43 43 43 43 42 42 42 41 41 41 40 40 40 40 40 39 38 36 36 37 37 37 37 37 37 37 37 38 39 39 39 39 39 38 38 38 38 39 39 38
43 43 42 42 42 42 41 40 40 41 40 39 40 40 40 39 39 38 39 38 37 38 38 37 37 37 37 37 37 37 37 37 38 38 38 38 37 37 37 37 38 38
42 42 41 41 40 40 40 40 39 39 39 39 39 39 39 38 38 38 39 38 38 38 38 37 36 36 37 37 36 36 37 36 37 37 37 37 38 37 37 37 37 37
41 41 39 39 38 38 38 38 38 39 38 38 38 39 40 38 38 38 37 37 37 38 38 38 39 39 38 38 37 36 36 36 36 35 36 36 35 36 36 36 37 37
38 38 36 37 36 36 36 36 36 38 38 38 37 37 37 38 37 37 37 37 37 37 38 39 39 39 39 39 38 37 37 36 36 35 34 35 36 35 35 36 37 37
35 35 35 34 35 35 35 34 35 36 36 37 37 37 38 37 37 37 37 38 37 38 38 38 39 38 38 37 37 37 38 36 35 35 34 35 36 36 36 36 36 36
34 33 33 33 33 32 33 33 34 35 35 35 36 37 37 38 38 38 38 38 39 38 38 38 39 38 36 37 37 37 37 37 35 35 35 35 36 36 36 36 36 36
32 31 31 32 32 33 34 34 34 34 34 35 36 37 38 38 38 38 38 39 39 38 38 37 36 37 37 37 37 36 36 37 34 35 35 35 36 36 35 35 35 36
31 31 31 32 33 33 33 33 34 34 36 36 36 37 38 38 39 39 39 38 39 39 37 36 36 37 36 37 36 36 36 37 37 36 36 34 34 35 35 35 35 35
31 31 31 31 32 33 33 33 34 35 35 36 36 36 37 37 38 38 38 39 39 38 36 36 37 37 36 36 36 36 36 36 38 38 37 37 36 36 34 34 35 35
31 32 32 31 32 32 32 33 34 35 36 36 36 36 37 37 37 37 38 38 38 38 35 34 35 36 36 36 36 36 37 36 37 36 36 36 36 37 35 35 34 35
31 31 32 32 32 31 32 34 34 35 35 36 36 36 36 36 37 37 37 37 37 37 36 34 34 36 36 36 36 36 37 36 36 34 34 35 35 36 35 35 35 35
32 31 31 32 31 31 32 34 34 34 35 36 35 35 35 36 35 35 36 36 37 36 37 36 34 36 36 36 36 36 37 36 34 33 34 34 34 35 35 34 35 37
33 32 32 32 31 33 34 33 34 34 35 35 35 35 35 34 34 34 34 34 36 37 37 38 37 37 36 35 36 36 37 37 34 33 33 34 33 33 34 33 34 35
35 34 34 32 32 33 34 34 34 34 35 35 35 33 33 33 33 33 33 33 35 36 37 38 37 37 37 36 36 36 36 36 35 34 33 34 33 31 31 32 32 33

ECMWFNIL_sfc_dewp_090.txt.gz
Dewpoint
49 50 49 50 49 49 50 49 49 49 49 49 47 47 47 48 47 48 48 48 48 48 48 49 49 49 49 49 49 49 48 49 48 48 48 48 48 49 48 49 50 49
50 50 49 49 49 48 48 49 49 48 48 48 48 46 48 47 47 47 47 46 46 47 47 48 48 47 48 48 49 48 47 47 47 47 47 47 47 47 47 48 48 48
49 49 49 49 48 49 49 49 49 48 47 47 47 47 47 47 46 46 46 46 45 45 46 46 46 46 46 47 47 47 47 46 46 47 47 47 46 47 46 46 47 48
49 48 48 48 48 47 48 47 47 47 47 45 46 46 45 46 45 45 44 44 44 44 44 45 45 45 45 45 46 45 46 45 45 46 46 46 46 46 46 46 46 45
48 47 47 47 46 46 47 46 45 45 46 46 47 46 45 45 44 42 43 42 43 42 43 43 44 45 44 45 45 44 44 43 45 45 44 44 46 46 46 46 45 45
48 45 45 45 45 47 46 46 45 46 45 46 46 45 44 43 42 41 41 41 41 40 40 41 41 43 43 43 44 44 44 44 44 44 42 43 44 44 45 45 44 43
46 47 47 46 47 46 46 46 46 46 45 45 44 44 43 42 42 41 39 39 38 39 38 40 40 42 43 43 43 42 42 44 43 41 41 42 43 43 43 44 42 41
46 46 46 46 47 46 46 45 45 45 45 44 44 43 42 40 40 41 39 39 38 38 39 39 39 39 41 42 42 41 42 43 42 41 42 42 42 40 41 42 43 41
46 45 45 46 46 46 45 44 44 44 42 43 42 42 42 41 40 40 40 39 38 39 38 38 38 38 41 41 41 41 40 42 42 42 42 41 41 41 40 41 40 41
46 45 45 45 45 45 45 45 43 42 41 42 41 42 41 42 40 38 39 40 40 39 37 37 37 38 39 40 40 40 39 40 40 41 41 40 40 39 39 39 39 39
45 45 45 45 45 44 45 44 43 43 43 40 41 41 40 40 39 39 38 38 41 37 37 37 37 38 38 38 40 41 40 41 40 40 41 40 40 40 40 39 39 38
44 45 44 44 44 44 44 44 43 43 42 42 40 40 40 40 40 39 37 36 36 37 37 37 36 37 37 37 38 40 41 41 41 41 40 39 39 39 38 39 39 37
44 43 43 44 44 44 43 42 42 43 41 40 40 40 40 40 40 39 40 39 39 38 37 37 36 37 38 38 38 39 40 40 41 40 39 40 39 38 38 38 38 37
43 43 42 42 42 41 42 42 41 41 42 41 41 40 40 38 39 39 40 39 39 38 38 38 36 36 37 37 38 39 40 40 40 40 39 39 40 39 39 38 37 36
41 41 40 40 39 40 40 41 41 41 41 40 40 41 41 39 39 39 39 39 37 39 37 37 37 38 38 38 39 39 40 39 39 37 38 38 38 38 38 36 35 37
37 38 37 38 38 38 39 40 40 40 40 39 39 39 39 40 39 40 39 38 38 38 37 38 37 38 39 39 39 39 40 39 39 39 38 38 37 37 37 36 35 36
34 35 35 35 37 38 39 37 38 40 39 39 40 40 41 40 40 39 39 38 37 38 37 37 36 37 38 36 37 38 39 41 38 38 37 37 36 35 34 35 35 35
32 33 33 35 36 35 36 36 38 38 38 39 40 41 41 42 41 39 39 39 39 37 37 37 36 38 36 36 37 36 38 40 38 37 37 35 34 33 32 33 35 35
30 31 33 34 35 36 37 37 37 37 39 39 40 41 41 41 40 39 39 39 38 37 36 35 35 37 36 36 36 36 36 39 36 37 35 34 35 35 34 34 35 35
30 31 32 34 36 36 37 36 37 38 40 40 40 41 41 40 40 40 39 39 38 37 36 34 34 37 36 36 36 36 36 37 37 37 36 34 34 34 35 34 35 35
29 31 32 33 34 36 37 37 38 39 39 39 39 39 39 38 39 39 39 39 38 37 36 35 35 36 36 36 35 36 35 37 37 37 35 34 34 34 34 35 34 35
30 31 33 32 33 34 35 37 39 39 39 39 39 38 38 38 38 38 38 37 38 38 37 35 34 36 35 36 35 35 36 36 36 36 35 33 33 33 31 33 34 34
30 31 31 32 33 34 35 37 38 39 38 37 38 38 37 37 37 37 37 36 36 38 38 36 35 36 35 36 35 35 37 36 35 33 33 33 32 32 30 32 33 32
30 30 31 32 32 33 35 36 36 37 38 37 36 36 36 37 36 35 36 36 36 36 37 37 36 36 36 36 35 36 36 36 32 32 33 31 31 31 30 31 32 40
30 31 31 32 33 34 36 36 36 37 37 37 36 36 36 34 34 34 35 36 37 37 36 37 37 36 36 35 36 35 36 37 31 30 31 31 30 30 30 30 31 34
33 33 33 33 33 35 36 36 36 37 38 37 35 32 32 33 33 34 35 35 36 37 37 36 36 36 36 35 36 36 36 37 33 30 31 31 29 28 29 31 31 31

ECMWFNIL_sfc_dewp_093.txt.gz
Dewpoint
52 52 51 50 50 51 51 50 50 50 49 49 48 48 47 48 48 48 48 47 47 48 48 49 48 49 49 49 50 48 47 49 48 50 49 48 48 49 48 48 49 47
51 51 50 50 50 50 50 50 50 49 49 49 48 47 48 47 47 47 46 45 46 46 47 48 48 47 48 47 48 47 46 47 48 48 48 47 47 48 48 48 48 47
50 50 50 50 49 50 50 50 50 49 48 48 48 48 47 47 46 45 45 45 46 46 46 47 47 46 46 46 46 46 45 46 47 46 47 47 46 47 47 47 46 47
50 50 49 49 49 49 50 49 49 49 49 47 46 46 45 45 45 45 45 45 44 44 45 45 46 46 44 44 45 45 46 45 45 46 45 46 46 45 45 46 45 45
49 49 49 48 48 48 49 48 48 48 48 47 47 46 45 44 43 42 43 43 43 42 43 44 45 45 45 45 44 44 45 43 44 44 43 44 44 45 44 45 44 43
48 46 46 47 47 48 48 46 45 46 46 46 45 44 44 43 41 40 41 40 41 40 40 41 42 43 44 43 44 44 44 43 42 43 41 42 42 43 44 44 43 41
46 47 47 47 48 48 48 47 47 46 45 45 43 43 43 42 41 40 39 40 38 39 38 40 40 43 43 43 43 43 43 43 42 41 40 41 42 42 42 43 41 39
46 48 47 48 48 47 47 45 45 44 45 44 44 43 41 40 40 41 40 39 38 36 37 37 39 40 41 42 41 42 43 43 42 42 41 41 42 39 40 41 42 39
46 47 47 48 47 46 45 44 44 44 42 42 42 42 42 40 40 41 40 38 36 37 36 37 38 39 41 41 42 41 40 42 42 42 41 41 41 40 39 40 40 39
47 47 47 46 46 45 45 44 43 43 43 43 42 42 40 42 40 38 39 39 38 36 36 36 37 39 40 40 41 41 40 41 40 41 41 40 40 39 39 39 39 38
47 46 46 46 46 45 45 45 44 43 42 40 42 41 40 40 39 38 38 37 39 36 36 35 36 38 39 39 41 42 41 42 41 40 41 40 41 40 40 39 39 37
46 46 45 45 45 46 45 44 44 43 42 42 40 41 41 40 41 40 37 35 35 36 36 35 36 37 39 40 40 42 42 42 42 41 40 39 39 40 39 38 38 36
44 45 44 44 44 44 44 43 43 43 41 40 40 40 40 40 40 39 40 38 36 37 36 36 36 36 38 39 41 42 41 40 41 40 40 40 39 38 38 38 37 36
44 44 44 44 43 43 42 43 42 42 42 42 41 41 40 39 39 39 39 38 37 36 37 36 35 35 37 38 39 41 42 40 41 41 40 39 40 38 38 37 37 35
42 42 42 42 41 42 42 42 42 41 40 40 41 41 42 40 39 38 38 38 37 36 35 35 36 37 37 38 38 39 41 40 40 38 38 38 37 37 36 35 35 36
39 40 39 40 40 40 40 41 40 41 40 40 40 41 40 40 39 39 38 38 37 36 35 36 36 38 39 38 38 39 40 42 40 39 37 37 36 36 35 35 35 35
36 37 37 37 38 39 40 39 39 41 41 41 42 41 42 41 40 39 39 37 36 36 35 35 34 37 38 36 36 38 40 41 39 38 37 36 35 35 35 35 35 34
33 34 34 36 37 36 37 38 39 39 40 41 42 42 41 41 41 40 40 38 37 36 36 35 34 38 36 36 36 36 37 40 40 38 37 36 35 34 34 34 34 34
31 33 34 35 35 35 37 36 36 38 40 41 41 41 41 41 40 41 40 39 37 34 34 34 33 37 35 36 36 36 36 39 38 38 36 36 35 34 33 33 34 34
31 31 33 34 35 36 36 36 37 39 41 41 40 40 41 41 42 41 41 39 38 36 35 34 33 37 36 36 35 35 35 36 37 38 37 35 34 34 34 33 34 34
30 31 32 33 33 34 35 36 38 40 39 39 39 39 39 39 39 40 40 40 39 38 36 35 35 36 35 35 35 35 34 38 39 38 36 36 34 35 34 33 35 35
30 31 32 32 33 34 35 37 39 39 38 37 37 37 38 38 38 38 39 40 40 39 36 34 34 35 35 35 35 35 35 38 35 36 35 34 33 33 32 33 34 34
29 29 30 31 32 33 35 37 37 37 37 37 37 37 37 36 37 37 37 38 39 39 38 35 34 35 35 35 35 35 36 37 34 33 34 33 33 32 32 33 36 33
28 28 29 30 31 32 36 38 38 37 37 37 36 36 36 36 36 36 36 36 36 37 38 37 35 35 34 35 35 35 36 36 31 32 35 34 31 31 33 31 37 37
28 29 29 30 31 33 36 36 36 36 36 36 35 35 36 34 34 35 36 36 36 36 38 39 37 36 35 35 35 35 36 36 31 30 33 34 33 29 32 30 30 36
31 32 32 32 32 34 35 35 36 37 38 37 35 31 31 31 31 34 35 36 37 37 35 36 37 36 34 34 35 36 36 37 33 30 31 32 34 29 29 31 29 29

ECMWFNIL_sfc_dewp_096.txt.gz
Dewpoint
54 54 53 52 52 53 52 52 53 52 51 51 50 49 49 49 49 49 49 49 49 49 49 49 49 49 49 49 49 48 48 50 50 50 48 49 48 48 48 47 48 46
52 53 52 52 52 52 52 54 52 50 51 51 50 49 49 48 48 48 48 47 47 48 48 48 48 47 47 47 48 48 47 48 47 49 48 46 46 46 47 47 46 44
52 52 51 50 51 51 51 52 52 51 50 49 50 50 49 49 48 48 48 47 47 47 48 47 47 46 46 47 48 48 46 47 47 48 48 46 47 46 46 46 46 44
51 51 50 49 50 49 50 50 51 50 50 49 48 48 47 47 47 46 46 46 45 45 46 46 47 46 45 45 47 47 46 45 46 46 46 46 46 46 46 45 45 43
50 50 50 50 50 50 50 49 48 48 47 48 48 48 47 47 45 43 45 45 45 43 44 45 45 46 46 46 45 46 46 46 46 45 45 45 45 45 44 44 43 41
49 47 47 47 48 49 49 47 45 45 46 47 47 46 45 44 43 42 42 42 42 42 43 43 43 45 45 45 46 46 46 45 44 44 43 43 43 43 44 44 41 39
49 49 48 47 48 49 48 47 47 46 46 45 44 45 45 43 42 40 39 40 38 40 39 41 42 44 45 45 45 45 45 44 43 42 41 43 43 42 42 42 41 38
48 48 47 47 48 47 46 45 45 46 46 45 44 43 42 41 41 42 39 39 38 38 39 39 41 42 44 45 44 44 44 45 44 42 42 42 42 40 40 41 40 38
47 47 46 47 47 46 45 44 45 45 44 44 43 44 43 41 41 40 40 37 36 38 37 39 40 41 44 44 44 43 42 44 44 42 42 42 41 40 39 40 39 39
47 47 46 45 45 46 45 46 45 45 44 43 42 44 42 43 40 38 39 38 37 36 37 38 40 41 42 43 42 42 42 41 41 42 41 41 40 39 39 38 38 38
48 47 47 47 47 46 46 45 45 44 44 41 43 42 41 41 39 37 37 37 39 35 36 37 38 39 41 42 44 43 42 42 41 41 40 40 40 39 39 38 38 37
47 47 46 46 45 46 46 45 45 43 43 42 40 40 41 41 40 38 36 35 35 35 35 36 37 38 39 40 41 42 43 43 42 42 40 39 40 40 39 38 38 37
45 46 46 46 46 46 45 43 43 44 41 40 41 41 41 40 39 38 38 36 35 36 35 36 37 37 38 38 39 40 42 41 42 42 42 44 41 39 38 39 37 38
45 45 44 44 45 44 43 44 43 43 43 43 42 42 41 39 39 38 38 36 36 35 36 37 36 36 36 37 37 38 40 42 41 42 41 40 41 39 39 38 37 37
45 44 44 44 43 43 43 42 42 42 42 42 42 42 43 40 40 39 37 36 35 35 34 35 36 37 38 38 38 37 38 40 42 40 41 40 40 40 38 37 37 37
41 43 42 42 42 42 42 42 41 43 43 42 41 41 41 41 39 39 37 36 35 34 34 36 35 37 38 37 37 38 38 39 42 43 39 41 42 41 39 39 38 36
40 40 41 40 41 42 42 41 41 43 42 42 42 42 42 41 40 37 37 36 34 34 34 34 35 37 37 36 36 37 38 39 41 43 42 40 39 41 38 40 40 37
38 38 38 39 39 38 38 39 41 41 41 41 42 42 42 42 41 38 37 37 36 34 34 34 34 37 35 36 35 35 37 39 41 43 42 40 40 39 39 39 37 38
35 36 36 37 37 37 40 40 40 41 41 41 41 43 43 43 41 41 39 38 36 33 33 32 32 36 35 35 35 35 35 38 40 43 40 42 40 41 39 38 37 38
34 35 36 36 37 38 39 39 40 40 42 42 43 43 43 42 42 41 40 39 37 35 34 33 33 37 35 35 35 34 34 36 42 44 42 41 36 37 40 38 39 36
35 35 35 36 36 38 39 39 40 41 40 41 41 41 41 41 41 42 41 40 38 36 35 34 36 35 34 34 34 34 35 38 41 43 41 42 38 38 40 39 39 38
34 34 35 35 36 37 38 39 40 41 40 40 40 40 40 40 42 42 42 41 39 38 36 34 34 34 34 34 34 34 35 39 39 38 39 39 38 36 37 39 40 38
33 34 35 35 36 37 38 39 39 39 40 40 40 40 39 39 40 40 41 42 41 39 37 35 33 35 34 34 34 35 36 37 38 34 37 37 38 39 37 40 41 38
33 32 34 35 36 36 37 39 39 40 39 40 38 38 37 37 37 36 37 39 39 40 40 37 35 36 34 35 34 35 36 37 34 33 34 35 35 37 36 40 39 43
32 33 34 35 36 38 39 39 39 40 40 41 40 39 39 38 37 36 36 37 38 40 41 40 37 37 34 34 35 35 37 36 34 32 32 33 34 35 36 35 40 41
34 35 36 36 36 38 39 39 39 39 40 39 40 36 35 36 38 38 38 37 38 38 39 40 39 37 36 34 34 35 36 37 35 33 31 32 34 34 34 34 34 32

ECMWFNIL_sfc_dewp_099.txt.gz
Dewpoint
52 51 51 51 51 51 50 50 49 48 47 47 47 46 47 47 49 47 47 47 48 47 47 47 47 47 48 47 46 46 48 48 47 45 45 45 45 45 43 41 42 42
51 52 52 51 50 50 50 50 49 48 48 47 47 47 47 47 47 46 46 46 46 46 46 46 46 46 47 47 47 46 45 46 46 47 44 44 44 44 42 41 41 41
51 50 50 49 49 49 51 49 48 48 48 48 48 47 47 48 46 46 46 46 45 45 46 46 45 45 45 46 46 45 44 44 44 45 45 44 43 43 43 41 40 40
50 50 50 49 49 50 50 49 48 48 48 47 46 47 47 47 45 45 45 47 44 44 45 45 46 45 44 44 45 45 44 44 44 44 44 44 45 43 42 41 41 39
49 50 49 49 50 51 49 47 46 46 46 46 46 47 46 43 43 43 43 44 43 43 44 44 44 45 45 44 44 43 44 43 43 43 43 43 43 43 41 40 39 39
50 50 50 50 49 47 46 46 45 45 45 44 44 45 43 42 41 41 40 40 42 42 43 43 43 44 45 44 43 43 43 42 42 42 41 41 41 42 42 39 38 38
48 49 48 48 48 47 46 45 46 47 45 45 44 44 43 41 39 39 39 40 40 42 41 42 43 43 44 44 44 43 43 43 42 42 41 40 41 40 41 39 39 38
48 48 47 46 45 45 46 45 45 44 44 42 41 42 41 41 40 40 39 39 40 40 41 41 42 43 44 43 43 43 43 44 43 42 41 40 40 39 39 41 38 37
47 46 46 45 44 44 43 44 44 44 44 43 43 42 41 39 39 39 38 38 38 39 39 40 40 41 42 43 42 42 42 42 42 41 40 40 40 39 39 40 38 38
46 46 45 45 44 44 44 44 43 43 44 43 42 41 39 39 38 38 37 37 37 37 38 38 39 39 40 40 43 42 41 40 39 40 40 39 39 38 38 39 37 37
45 45 44 44 44 44 43 43 43 44 44 42 41 41 40 39 39 38 37 37 38 37 37 37 38 38 38 38 40 41 42 41 39 40 40 40 39 40 42 38 39 37
45 45 45 44 44 43 43 43 43 41 41 42 41 39 38 38 38 37 37 36 37 37 37 36 36 36 36 37 37 39 40 42 42 41 41 40 38 38 38 37 39 37
45 44 44 44 44 43 43 43 42 41 40 40 41 39 38 38 37 37 37 36 37 37 36 36 36 36 36 36 37 37 39 41 41 40 40 40 37 37 37 36 37 39
45 45 44 44 44 43 43 43 43 42 42 42 41 39 38 37 36 36 36 36 36 36 36 37 36 36 36 36 36 37 38 40 40 42 39 39 38 37 37 36 35 37
44 44 44 44 42 42 42 42 42 42 42 42 42 41 40 38 37 36 35 34 34 34 34 35 36 37 37 37 36 36 37 38 39 41 39 40 38 37 37 36 35 36
44 44 43 42 42 41 41 42 42 42 41 41 40 39 38 38 37 37 36 35 34 33 33 34 35 37 37 37 38 37 37 38 40 41 38 38 40 38 38 37 36 36
42 42 41 41 41 41 41 42 42 42 41 41 40 39 38 38 36 36 35 35 34 33 33 34 35 36 37 36 36 37 38 37 38 40 38 37 38 38 37 38 37 37
41 41 41 41 41 41 42 42 42 41 41 41 40 39 39 37 37 36 35 34 34 32 32 33 33 37 35 36 36 36 38 39 38 40 39 37 37 38 37 36 36 37
40 40 40 40 40 40 41 41 41 41 41 41 41 40 38 37 36 35 34 34 33 32 32 32 32 36 35 36 35 35 36 39 39 40 38 37 33 37 37 36 35 37
39 39 39 38 40 41 41 40 40 41 41 42 42 41 40 39 38 37 35 34 34 33 32 32 33 36 35 35 35 36 36 38 38 41 38 35 32 37 38 36 35 35
38 38 38 39 39 40 40 40 40 40 40 41 40 40 40 39 38 36 36 36 35 33 32 32 34 35 35 35 35 36 36 37 37 37 36 36 36 36 38 36 35 35
37 37 37 38 39 39 39 39 39 39 40 40 40 40 40 40 40 38 36 35 35 33 30 30 32 35 34 34 35 35 36 37 34 33 34 34 35 35 36 37 36 34
36 37 38 38 38 38 39 39 39 38 38 38 38 38 38 38 39 39 38 36 36 34 31 30 31 34 34 34 34 35 36 35 33 32 32 33 34 35 35 38 36 34
36 37 37 38 38 38 38 37 37 38 38 39 36 36 35 35 36 37 38 39 37 34 32 30 30 34 34 34 34 35 36 35 33 31 31 32 33 34 35 35 38 40
36 37 37 38 38 38 38 37 37 37 38 37 36 35 35 35 36 35 35 36 37 37 39 33 32 34 34 34 34 35 36 34 34 31 30 31 33 33 33 34 35 41
36 37 37 37 37 38 38 38 39 38 37 37 36 35 35 35 34 34 34 35 36 39 39 36 34 31 33 34 34 35 37 35 35 32 32 32 32 35 33 32 34 32

ECMWFNIL_sfc_dewp_102.txt.gz
Dewpoint
52 51 51 50 50 49 48 47 46 46 46 46 46 46 46 47 47 46 47 47 46 45 46 46 46 46 46 45 46 46 46 45 44 43 43 42 40 40 40 39 39 40
51 52 52 50 50 49 47 46 46 46 45 45 46 46 46 46 46 45 45 45 45 45 44 45 45 45 45 45 45 44 44 44 44 45 42 41 40 40 40 39 39 39
50 49 49 48 48 47 47 46 46 45 45 46 46 46 46 46 45 45 44 44 44 44 44 44 44 44 44 44 44 43 43 43 43 43 42 40 40 39 39 39 39 39
49 49 48 48 47 46 46 46 47 47 46 45 45 46 46 46 44 44 44 46 44 44 44 44 44 43 43 43 43 43 43 43 43 43 42 41 41 39 39 40 41 39
49 49 49 48 48 47 46 46 45 45 45 45 45 45 44 42 42 42 43 43 43 43 43 44 44 44 43 43 42 42 43 41 41 41 41 41 40 40 40 39 38 37
49 49 50 48 46 45 45 45 44 43 43 42 42 42 41 41 41 41 42 42 42 43 43 43 43 44 43 43 42 42 42 41 40 40 40 40 40 40 40 39 38 37
49 49 48 46 45 45 44 44 45 45 43 42 41 40 39 40 40 40 41 41 41 43 42 42 43 43 43 43 43 42 42 41 40 40 39 40 41 39 39 38 39 37
49 48 46 45 45 45 45 44 44 43 43 41 40 40 39 39 39 40 40 40 40 40 40 41 41 42 42 42 41 41 41 42 41 40 39 39 39 39 39 39 38 37
47 46 45 45 44 44 43 43 43 42 41 39 39 39 39 38 38 39 39 39 39 39 39 39 40 40 41 42 41 40 39 40 40 39 38 38 38 38 38 38 37 39
45 45 44 43 43 43 42 42 42 42 41 39 38 38 38 38 38 38 38 38 38 38 38 38 38 38 39 40 41 40 39 39 39 39 39 38 38 38 38 38 37 36
44 43 43 43 42 42 42 42 43 42 41 39 38 38 37 37 38 38 37 37 37 36 36 36 37 37 37 38 39 40 41 40 39 39 39 38 38 40 43 38 38 36
44 43 43 43 43 42 42 42 41 40 39 39 38 37 37 37 37 37 37 36 36 36 35 36 36 36 36 37 37 39 40 40 40 40 38 36 36 37 38 39 37 37
44 43 43 43 43 42 42 41 40 39 38 38 38 37 37 37 37 37 37 36 35 35 36 35 35 36 35 36 37 37 38 40 40 38 38 37 36 36 36 37 38 37
44 43 43 42 42 42 41 41 40 39 39 38 37 36 36 36 35 35 36 35 35 36 36 38 35 35 36 36 36 37 38 38 39 41 38 37 37 36 36 35 37 38
44 43 43 44 43 42 42 41 41 39 38 38 37 37 37 35 34 34 33 33 33 34 34 36 36 36 37 36 36 36 36 37 38 39 38 37 37 36 35 35 35 37
44 44 42 42 42 41 41 41 40 40 39 37 37 36 36 36 35 34 33 32 32 32 33 35 35 37 38 38 38 38 36 37 39 40 38 38 38 37 35 36 36 37
43 42 41 41 41 41 41 41 40 40 38 37 37 37 37 37 35 34 33 33 32 32 32 34 35 36 37 36 37 39 38 37 37 38 39 39 38 36 35 37 36 35
42 41 41 41 41 41 41 40 39 38 37 37 36 36 36 35 33 33 32 32 32 32 32 34 34 37 36 37 37 38 40 39 38 39 39 36 37 36 36 36 35 34
41 40 40 41 41 41 41 40 39 38 37 36 35 36 35 34 33 33 32 32 31 30 32 33 33 37 36 37 37 37 38 39 38 38 36 34 35 35 35 35 35 35
41 40 40 41 41 41 41 40 39 38 37 37 37 36 34 33 32 32 32 31 31 31 32 32 33 36 36 37 37 36 36 37 36 36 36 36 36 36 36 34 33 32
40 40 40 41 41 40 40 40 39 39 38 38 36 34 33 33 32 32 32 34 32 31 31 32 34 36 36 36 36 36 36 36 35 36 35 35 35 36 36 35 34 33
40 39 40 40 40 40 40 40 40 40 39 38 38 37 36 35 34 34 33 32 32 30 30 30 32 35 35 36 36 35 36 35 34 34 34 34 34 35 36 36 35 33
39 39 40 40 40 40 40 40 39 39 39 40 38 38 37 35 34 34 33 32 32 31 29 29 30 34 35 36 36 36 35 32 33 33 33 33 33 34 34 35 35 35
38 39 40 40 39 39 39 39 39 39 39 40 38 38 37 36 36 35 34 34 31 29 29 29 29 33 35 35 36 36 36 32 31 31 31 32 32 33 34 33 35 38
38 39 39 39 39 39 39 38 38 38 39 38 37 37 37 37 38 36 35 34 32 31 37 31 29 33 34 34 35 36 36 31 31 30 29 30 32 32 32 32 33 35
39 39 39 38 38 38 38 38 38 38 37 36 35 36 36 37 37 36 36 35 35 36 36 32 30 29 33 34 35 36 37 34 32 30 31 29 30 34 32 31 32 31

ECMWFNIL_sfc_dewp_105.txt.gz
Dewpoint
53 52 51 49 48 48 47 46 46 46 46 46 46 45 46 46 47 46 46 45 45 45 45 45 45 44 44 44 43 42 42 41 41 39 39 39 38 38 38 38 38 38
51 52 51 49 49 48 46 46 46 45 45 45 46 46 46 45 45 44 44 44 44 44 44 45 44 44 43 43 42 41 40 40 39 42 38 38 38 38 38 38 38 38
51 50 49 47 47 46 46 46 46 45 45 45 45 45 45 45 44 44 44 43 43 43 43 44 44 44 43 43 42 41 40 39 39 39 40 38 39 38 38 38 38 38
49 48 48 47 46 46 46 46 46 46 45 45 45 45 46 45 44 44 45 46 43 43 43 43 43 43 42 42 42 42 41 40 40 40 39 40 40 38 38 38 39 37
48 48 47 46 46 46 46 45 45 44 44 44 44 45 45 43 43 43 43 43 43 43 43 42 42 42 42 42 41 41 41 40 40 39 39 39 39 38 38 37 37 36
48 47 47 46 46 45 45 44 44 44 42 42 42 43 42 42 42 42 43 42 43 43 43 42 42 42 41 41 40 40 40 40 40 39 38 38 38 38 38 37 37 36
48 47 46 46 45 45 44 43 43 43 41 41 41 41 41 41 42 42 42 42 42 43 42 42 42 42 42 41 41 40 40 40 39 39 39 39 40 38 38 38 38 36
47 46 45 45 44 44 44 42 41 41 41 40 40 41 41 41 41 41 41 41 41 41 41 41 41 41 41 41 40 40 40 40 39 38 38 38 38 37 38 38 36 36
46 45 44 44 43 43 42 41 41 40 41 39 39 40 41 40 40 40 40 40 40 40 40 40 40 40 40 39 39 38 38 38 39 37 37 37 37 37 37 36 36 37
45 44 44 43 42 42 41 40 40 40 40 39 39 39 39 40 39 39 39 39 39 39 39 39 39 40 40 40 38 37 37 38 38 37 37 37 37 37 36 36 35 34
44 43 43 42 42 41 40 40 39 39 39 38 38 38 39 39 40 39 38 38 38 37 37 38 38 38 39 39 40 39 39 38 38 37 38 38 37 38 41 36 37 34
43 43 42 42 42 41 40 39 39 38 38 38 37 37 37 38 38 38 38 36 36 36 36 36 37 37 37 38 38 39 40 39 38 37 37 37 37 37 37 37 36 35
42 42 42 42 42 41 40 39 38 38 37 37 38 37 37 37 37 36 37 36 36 36 36 36 36 36 36 36 37 38 39 39 37 36 36 36 36 37 37 37 36 35
42 42 42 42 41 40 39 38 38 37 38 38 37 36 36 35 35 36 37 36 36 36 37 38 36 36 35 35 36 37 39 38 38 37 36 35 36 35 37 36 36 36
43 43 43 43 41 39 39 38 38 37 37 37 37 37 37 35 34 34 34 34 34 35 35 36 36 36 36 36 36 36 36 38 38 38 36 35 35 34 35 35 36 37
43 43 42 41 40 39 38 38 37 37 36 35 35 35 35 35 34 33 33 33 33 34 34 35 36 37 39 40 42 36 36 37 38 37 37 36 36 35 35 35 35 36
43 42 41 41 40 39 38 37 37 36 35 35 34 34 35 36 33 32 32 32 32 33 33 35 35 36 38 37 38 40 37 37 37 37 37 36 36 35 34 35 34 34
42 41 41 41 40 39 38 38 37 35 35 35 35 35 35 33 32 32 32 32 32 33 33 34 34 38 37 37 38 39 41 39 37 37 37 36 35 35 36 35 33 33
41 41 41 40 40 39 38 37 36 36 35 35 34 35 32 31 31 31 31 31 31 32 33 33 33 38 37 38 38 38 38 38 36 35 37 35 34 34 34 34 34 35
41 41 40 40 40 39 38 37 36 35 35 35 35 33 31 31 31 30 31 31 31 32 33 32 33 37 37 37 37 37 37 37 35 35 36 35 35 35 34 33 33 33
40 40 40 40 39 38 37 36 36 35 35 35 32 31 30 30 30 30 31 34 31 31 32 32 34 36 36 36 36 36 36 36 35 35 35 34 34 35 35 33 33 33
40 40 40 40 39 38 37 36 36 35 34 33 33 31 31 31 31 32 31 30 31 31 31 30 32 36 36 36 36 35 36 35 34 34 34 34 33 34 34 34 34 33
40 41 40 40 39 38 37 37 36 35 34 34 32 32 32 31 31 30 31 30 31 31 30 29 31 35 36 36 35 35 35 33 34 34 33 32 31 32 32 33 33 37
40 40 40 40 39 38 38 37 36 35 35 35 32 32 31 31 31 31 29 31 30 29 30 30 29 34 36 36 36 36 35 32 32 32 31 31 31 31 32 31 33 37
40 41 40 40 39 39 39 38 37 37 37 36 34 33 32 33 34 31 31 30 29 30 37 31 30 33 35 35 36 36 36 31 31 30 30 28 30 30 31 31 31 34
40 41 40 40 39 39 39 38 39 38 37 36 35 35 34 34 34 33 32 30 31 34 35 31 30 30 34 35 36 36 36 34 31 30 30 27 29 34 31 30 30 31

ECMWFNIL_sfc_dewp_108.txt.gz
Dewpoint
52 51 49 48 48 48 47 47 47 46 46 46 46 46 47 47 48 46 47 46 46 46 45 45 44 43 42 42 41 40 41 40 40 39 39 40 37 37 36 37 37 38
51 51 50 49 49 48 47 47 47 46 46 46 46 46 47 46 46 46 46 45 45 44 44 44 43 42 41 40 40 39 39 39 39 41 38 38 38 37 37 37 36 37
51 50 48 48 47 47 47 47 47 47 46 46 46 46 46 46 45 45 45 45 44 44 44 44 43 42 41 40 40 39 39 39 39 39 40 39 39 38 39 38 37 36
50 49 48 47 47 46 47 47 46 46 46 45 45 46 46 46 45 45 46 46 44 44 44 43 42 41 40 39 39 39 39 39 39 39 39 40 40 39 39 38 38 36
49 48 47 47 47 47 47 46 45 45 45 45 45 46 46 44 44 43 44 43 43 43 43 42 42 41 41 40 40 39 40 39 39 39 38 39 40 39 39 38 37 36
49 48 47 46 46 46 46 45 45 45 44 44 44 45 43 43 43 43 43 43 43 42 42 42 41 41 41 40 40 40 40 39 39 38 38 38 39 39 39 38 36 36
47 47 47 46 46 46 45 45 45 44 43 43 43 43 43 43 43 43 43 43 42 43 41 41 41 41 41 41 40 40 40 40 39 39 38 39 40 39 39 38 37 36
46 46 46 46 45 45 44 43 43 42 43 42 42 43 42 42 42 43 42 42 42 41 41 41 41 40 40 40 40 40 40 40 39 38 38 38 38 37 38 38 37 35
46 45 45 45 44 43 42 42 42 42 42 41 41 41 42 41 41 41 41 41 41 41 41 40 40 40 40 40 40 39 38 39 39 38 38 37 37 36 36 37 36 37
45 45 44 44 43 42 41 41 41 41 42 41 41 41 41 42 41 40 41 41 41 40 40 40 40 40 39 39 38 38 38 38 38 38 38 37 37 36 35 35 34 34
44 44 43 43 42 41 41 41 40 41 41 40 40 40 40 40 41 40 40 39 40 39 39 39 39 39 39 39 39 39 38 38 38 38 38 37 37 38 40 36 37 33
43 43 42 41 41 40 40 40 40 40 40 41 40 39 39 39 39 39 40 38 38 38 38 38 39 39 39 39 39 39 39 39 39 39 39 39 39 38 37 38 36 35
42 42 41 41 40 40 40 39 39 39 39 39 40 39 39 38 38 38 39 37 37 38 38 38 38 38 39 39 39 39 38 38 38 38 38 39 38 38 38 37 37 36
42 42 41 40 40 39 39 38 38 38 39 40 39 38 38 37 37 37 38 37 37 37 38 39 37 37 38 39 39 39 39 37 37 38 37 37 38 38 39 38 38 38
42 42 41 41 39 38 38 38 38 38 38 38 39 38 39 37 37 37 36 36 37 37 37 38 38 38 38 38 39 38 38 38 38 37 36 36 37 37 38 39 40 40
42 42 40 39 38 38 37 37 37 37 37 36 36 36 36 37 36 36 36 36 36 36 37 38 38 40 42 41 40 39 38 38 38 37 37 37 38 38 37 38 37 38
42 40 39 38 38 37 37 36 36 36 35 35 35 35 35 37 35 34 35 35 35 35 36 37 37 39 39 39 39 40 39 39 38 39 38 38 37 36 35 37 36 36
41 40 38 38 37 37 36 36 36 35 34 34 34 35 36 35 34 33 34 34 35 35 36 37 38 39 37 38 39 39 40 40 39 39 39 38 37 37 38 38 36 37
41 39 39 38 37 37 36 35 34 34 34 34 34 35 34 33 33 33 33 34 34 34 36 38 37 38 38 39 39 39 39 39 39 39 38 37 37 37 37 37 38 38
40 40 39 38 37 36 35 34 34 34 34 34 35 34 32 32 32 32 32 33 34 35 35 35 36 39 38 38 38 37 37 38 37 38 38 37 37 37 37 37 37 37
40 40 39 38 37 36 35 34 34 34 34 34 33 31 31 31 31 31 32 36 35 34 35 35 37 37 37 37 37 37 36 37 37 38 37 37 38 37 37 37 36 36
40 40 39 38 37 35 35 34 34 34 34 33 33 31 32 32 32 33 34 32 33 34 34 34 36 36 36 36 36 36 37 38 36 36 36 37 37 37 37 37 37 36
41 40 39 38 36 35 35 34 34 34 33 33 31 31 30 30 31 32 33 32 33 33 33 33 35 36 36 36 36 36 36 35 36 36 35 35 35 35 35 36 36 39
41 40 39 38 36 35 35 35 34 33 32 33 30 30 30 30 31 31 31 33 33 32 33 33 34 36 36 36 35 36 36 34 34 34 34 34 33 34 35 35 36 38
42 41 39 38 37 36 36 35 33 32 33 32 31 30 30 32 35 30 31 32 31 32 37 33 34 36 36 35 36 35 37 34 33 32 32 32 32 31 35 34 33 36
41 41 40 38 37 37 36 34 34 33 32 31 31 30 31 32 33 31 30 31 33 37 37 33 33 35 37 36 36 35 35 35 32 31 32 31 33 36 31 33 33 33

ECMWFNIL_sfc_dewp_111.txt.gz
Dewpoint
56 56 55 54 53 53 53 52 52 53 52 52 51 51 50 51 50 50 49 49 48 48 47 46 45 44 44 44 43 41 40 41 40 40 40 40 40 42 41 42 43 40
55 55 54 53 52 51 52 52 52 52 52 52 51 50 51 50 50 49 49 48 47 46 45 44 44 43 42 42 43 41 39 40 40 40 39 39 38 40 41 42 42 41
54 53 53 52 51 51 52 52 52 51 51 51 51 51 50 50 50 49 48 47 46 46 45 44 43 42 42 42 41 41 40 40 40 39 40 39 38 38 38 38 39 39
53 53 51 51 50 50 51 51 51 50 50 50 50 50 49 50 49 48 48 47 45 44 44 43 42 40 39 40 41 40 41 39 39 40 39 39 38 37 37 38 38 37
52 51 50 50 50 50 51 50 50 50 50 50 50 49 49 49 48 47 47 46 44 43 42 41 41 41 40 41 40 40 40 39 40 39 37 37 38 38 37 37 36 36
51 49 49 49 50 50 50 49 48 49 49 50 50 49 48 48 47 46 45 44 43 42 41 41 40 40 40 41 41 40 39 38 38 37 35 35 35 36 37 36 35 35
50 49 49 49 49 49 49 49 49 49 49 49 48 48 48 47 46 45 43 43 40 40 39 41 41 41 41 41 40 39 38 38 37 35 34 34 35 36 36 35 33 32
49 49 49 49 50 49 49 48 48 48 49 48 48 48 46 45 45 46 44 42 40 39 40 39 40 40 41 41 39 38 40 39 37 35 34 34 34 31 34 35 35 32
49 49 49 50 50 49 48 47 48 48 47 48 47 47 47 46 45 45 44 43 41 41 39 40 39 40 41 40 39 36 35 38 37 35 35 34 32 31 30 33 33 34
49 49 50 49 49 48 48 48 47 47 47 46 46 46 46 47 45 44 44 43 42 41 40 40 40 41 40 38 36 35 34 34 35 36 34 33 31 30 30 32 33 33
50 50 50 49 49 48 48 47 47 46 46 45 46 45 45 45 45 44 43 42 43 40 39 39 39 39 38 37 39 37 35 36 34 34 34 33 33 33 34 33 33 33
49 49 49 49 48 47 47 46 46 46 46 46 44 44 45 44 44 44 41 41 40 40 39 39 39 38 34 33 34 37 37 37 37 36 35 33 32 32 33 34 34 33
48 48 48 48 47 47 46 45 46 46 45 44 44 44 45 44 44 43 43 41 40 41 40 40 39 37 36 36 35 35 36 36 38 37 36 35 32 31 32 34 34 35
47 47 47 47 46 46 45 45 45 45 45 45 44 44 44 43 43 43 43 42 42 41 41 42 41 38 36 37 36 37 37 37 37 38 36 36 36 34 35 34 35 36
46 46 46 46 45 44 45 45 45 45 45 44 45 45 45 43 43 43 42 41 41 42 41 42 40 40 39 39 38 37 37 37 37 36 36 36 35 34 35 35 35 36
45 45 44 44 44 44 44 44 44 44 44 44 43 43 43 43 42 42 41 41 41 41 42 44 43 44 44 42 41 38 38 38 39 38 36 36 35 35 35 35 34 35
44 43 43 42 43 43 43 43 43 44 44 43 43 43 43 43 43 41 42 41 40 41 42 43 44 43 41 39 39 40 40 39 38 38 37 36 35 35 33 33 34 34
43 42 41 41 42 41 41 41 43 43 42 42 42 43 43 43 43 41 42 42 42 41 43 43 44 43 38 39 39 39 41 39 39 38 38 36 35 34 34 33 33 35
41 40 40 40 40 40 41 41 41 41 41 42 42 43 43 42 42 42 42 42 42 41 42 43 43 39 38 39 38 38 39 40 38 39 38 36 36 35 34 34 33 32
41 40 40 40 40 40 40 39 40 40 42 42 42 42 42 42 42 43 42 42 42 42 42 43 43 39 38 39 38 38 38 39 39 40 39 37 36 35 36 35 34 33
40 40 39 39 39 39 39 38 39 41 40 40 41 41 41 41 41 42 42 42 42 42 42 43 44 38 38 38 38 38 37 38 42 42 40 39 38 37 37 37 36 37
40 39 39 39 38 38 37 37 39 39 39 39 40 40 40 40 40 41 41 41 42 42 42 41 43 37 37 38 37 37 37 42 42 42 40 39 37 37 37 37 36 37
40 40 39 38 37 37 36 37 38 38 38 38 38 38 38 39 39 39 40 40 40 41 42 41 41 38 37 37 37 36 38 40 42 39 39 39 38 38 37 38 38 36
40 39 39 38 37 36 36 37 37 37 37 37 36 36 37 37 37 38 38 39 39 40 41 41 41 39 36 36 36 36 39 40 38 37 39 39 39 39 37 36 38 41
41 40 39 38 37 37 37 37 37 37 37 37 37 36 37 36 36 36 37 38 39 40 40 42 41 40 36 36 36 36 39 41 37 35 38 39 36 36 37 34 35 37
43 41 41 39 38 38 37 37 37 37 37 36 36 34 34 34 35 35 36 36 37 39 40 41 41 41 39 36 36 36 37 39 37 35 36 38 36 33 34 34 34 34

ECMWFNIL_sfc_dewp_114.txt.gz
Dewpoint
60 61 61 60 59 59 58 57 56 56 56 55 54 54 53 53 51 51 51 50 49 48 46 45 45 45 45 44 44 43 42 44 44 44 45 44 44 46 44 44 45 42
60 61 60 60 59 58 57 57 57 56 56 56 55 53 53 52 51 50 49 49 48 47 45 44 43 42 42 42 43 41 40 42 42 42 43 42 42 44 45 46 44 42
61 60 60 59 58 58 57 56 56 56 55 55 55 54 53 52 50 49 48 48 47 45 45 43 43 43 43 43 42 42 41 41 42 42 42 42 41 42 43 42 41 42
60 60 59 59 57 56 56 55 56 56 55 54 53 53 52 51 50 49 48 47 46 44 44 43 42 41 41 42 43 41 42 41 40 42 41 41 41 41 41 41 41 40
60 59 58 57 55 55 55 55 55 54 54 53 53 52 51 50 49 46 46 45 44 43 42 42 42 42 42 43 42 41 42 40 41 41 39 40 41 41 41 40 40 40
58 56 55 54 55 55 54 53 52 54 53 53 52 51 50 49 46 45 44 44 42 41 40 40 40 41 41 41 41 41 40 39 39 38 36 37 38 39 39 39 39 39
56 56 56 54 54 55 54 53 53 54 53 52 50 51 50 48 46 44 42 41 39 38 37 39 40 41 41 42 41 40 39 38 37 35 34 36 38 39 38 38 36 36
56 55 54 53 54 54 53 52 53 53 53 51 51 50 48 46 44 44 42 39 36 36 37 37 38 38 40 40 39 39 40 39 37 34 35 36 37 36 37 37 38 34
56 54 52 53 54 54 53 52 53 53 51 51 49 49 48 46 45 44 41 38 37 38 36 36 37 38 40 39 39 38 37 39 37 36 35 36 35 35 34 37 36 38
55 53 53 53 54 53 53 53 53 52 50 49 48 48 46 47 45 42 41 40 39 37 37 37 39 40 38 36 35 36 36 35 35 36 34 33 33 33 34 35 36 37
54 53 53 54 54 53 53 53 52 51 49 47 48 48 46 46 44 43 42 40 42 38 38 38 39 38 36 35 37 37 36 36 34 33 34 34 36 36 36 36 36 37
53 53 53 54 53 53 53 53 52 51 48 48 46 46 47 46 45 44 41 39 39 38 38 38 38 38 36 34 34 36 37 37 36 35 34 34 34 36 36 37 38 37
53 54 54 53 53 53 53 51 51 51 48 46 46 47 46 45 45 43 43 40 39 39 39 39 38 36 36 36 35 36 37 37 38 37 35 35 35 35 35 36 37 38
54 54 53 52 52 52 51 51 50 49 47 46 46 46 46 44 43 43 44 41 41 40 39 40 37 34 35 36 36 38 38 38 38 38 37 36 37 36 38 37 38 39
54 54 53 52 51 50 50 50 50 49 47 46 46 46 46 44 44 43 43 41 40 41 40 40 38 37 36 37 38 37 39 39 38 36 37 36 36 36 36 36 37 37
53 53 51 51 50 49 49 50 49 48 47 46 45 45 45 44 44 44 42 42 41 40 41 42 40 39 41 41 39 38 39 38 40 39 37 37 37 37 36 36 36 35
51 50 50 49 48 48 49 48 48 48 46 45 45 45 46 45 44 43 42 42 41 41 42 42 41 40 40 38 37 38 40 41 40 39 39 38 37 37 36 36 37 35
49 49 48 48 48 47 47 47 47 46 45 44 45 46 46 46 45 43 43 43 43 41 43 42 41 43 38 38 38 38 40 41 41 40 40 39 38 37 36 36 36 37
48 47 47 47 46 46 47 46 46 44 44 44 46 47 46 45 44 44 43 43 43 42 42 41 42 39 37 38 38 38 38 41 39 40 39 39 38 37 36 36 36 38
47 46 46 46 46 46 46 45 45 43 45 46 46 46 45 45 45 45 44 44 43 42 42 41 43 39 37 38 38 37 37 38 40 40 40 38 38 37 38 37 36 36
46 45 45 45 45 45 45 44 44 44 45 45 45 45 45 44 44 45 45 44 43 43 42 42 44 38 38 38 38 37 37 37 42 41 41 40 39 39 39 39 36 36
45 45 45 44 44 44 44 44 44 45 45 45 45 44 44 44 45 44 44 44 43 43 43 41 48 37 37 38 38 37 37 39 40 42 41 40 39 39 38 38 36 37
45 44 44 43 43 43 43 43 44 45 45 45 44 44 43 44 44 44 44 43 43 43 43 42 45 39 37 38 38 37 38 38 40 40 39 40 40 39 38 38 37 34
45 44 43 43 42 42 42 43 44 44 44 44 43 43 43 43 43 43 44 43 44 43 43 42 44 41 38 38 37 37 40 39 40 39 40 39 39 39 38 38 39 43
44 44 43 42 42 42 43 43 43 43 43 43 42 42 42 41 41 42 43 43 44 43 45 44 43 42 37 37 37 37 40 40 38 36 38 38 37 37 38 38 38 33
45 43 42 42 41 42 43 42 42 43 43 42 41 39 39 39 40 40 42 42 43 43 44 43 43 42 41 37 37 37 37 41 39 36 37 38 37 36 36 37 36 36

ECMWFNIL_sfc_dewp_120.txt.gz
Dewpoint
65 64 63 63 62 62 62 61 61 60 60 60 59 58 59 58 55 58 56 54 53 53 52 52 51 51 50 50 51 49 49 51 51 51 51 51 51 50 49 48 49 49
64 64 63 63 62 62 62 62 61 61 61 60 60 60 58 56 55 55 54 52 52 51 51 51 51 50 49 49 50 50 49 49 48 50 50 49 50 50 49 49 48 48
64 64 63 63 62 62 62 62 61 62 61 59 60 59 58 56 56 54 54 52 50 51 51 50 50 49 48 48 49 48 48 48 48 49 49 48 50 49 49 48 47 48
64 64 63 62 62 62 62 62 61 61 60 59 58 57 56 56 54 53 53 50 49 49 50 49 48 46 45 47 49 49 48 47 47 48 48 49 49 48 48 48 48 47
64 63 63 62 62 62 61 60 60 59 58 58 58 57 56 55 53 51 51 49 49 48 48 48 48 48 47 47 47 48 48 47 48 48 47 46 47 47 47 47 46 46
63 63 62 62 62 61 60 59 58 58 58 58 57 56 54 53 51 49 49 47 47 46 46 47 46 47 47 46 48 47 47 47 47 46 44 45 46 47 48 47 47 47
63 63 62 61 60 60 59 58 58 58 57 56 55 55 53 51 50 48 46 46 44 45 44 46 46 47 47 47 47 47 47 46 45 43 42 45 46 46 45 45 44 42
63 63 62 60 60 59 58 58 57 57 57 55 55 53 51 49 47 47 46 44 42 42 43 43 44 44 46 47 45 45 46 46 45 43 42 43 45 42 44 45 46 42
62 62 60 60 59 59 58 57 57 57 55 54 53 52 50 48 46 46 44 41 42 43 42 42 42 43 47 46 45 43 42 46 45 43 44 44 43 43 41 45 43 45
62 61 59 58 58 58 57 57 57 56 55 53 51 51 49 49 46 43 43 42 41 41 41 41 43 45 45 43 41 42 42 42 42 44 44 43 41 40 41 43 43 44
61 59 58 58 58 57 58 57 56 55 54 51 52 50 48 47 44 42 41 40 43 39 40 41 42 42 42 42 44 44 42 42 41 41 43 41 43 42 43 43 45 45
60 59 58 58 57 58 57 56 56 54 53 52 50 49 48 46 43 41 38 38 38 38 39 40 40 41 40 40 40 42 42 42 42 43 42 41 41 43 42 45 45 44
59 58 58 57 57 57 57 56 55 54 52 50 50 49 47 45 43 42 42 38 37 39 40 41 40 39 41 41 40 39 40 41 43 43 42 42 41 41 43 44 43 44
58 58 58 57 57 57 56 55 54 53 52 51 50 48 46 43 42 41 43 40 40 40 41 41 40 39 39 40 40 41 41 40 42 42 41 43 43 42 44 44 43 41
58 58 57 57 56 56 56 55 54 53 51 50 50 49 47 44 43 42 41 39 40 42 41 41 41 42 41 41 41 39 40 40 40 39 41 41 41 42 43 42 39 37
58 58 57 56 56 56 55 55 53 53 51 50 49 48 47 45 43 43 41 41 41 41 42 44 44 43 45 44 44 41 40 39 42 41 39 40 41 42 42 41 37 33
57 57 56 56 55 55 55 54 53 52 50 49 49 48 47 47 46 43 42 42 41 42 43 44 44 46 40 38 38 41 42 42 41 41 41 40 40 41 39 36 33 31
57 56 55 55 55 54 55 53 52 51 49 49 50 49 49 48 47 44 44 44 43 43 44 44 44 40 37 37 38 39 42 42 42 41 42 41 40 40 39 35 31 32
56 56 55 55 54 54 54 53 51 51 48 48 49 49 49 48 46 46 46 45 45 43 43 44 40 38 37 37 37 37 38 42 40 42 41 41 41 39 39 39 40 41
56 55 55 55 54 54 54 52 51 50 49 49 49 49 49 48 47 48 47 45 45 44 44 43 40 38 37 37 37 37 36 41 42 43 43 41 41 40 41 40 42 41
56 55 55 54 54 53 54 52 51 51 49 48 49 48 48 47 48 47 48 46 46 46 45 42 41 37 36 37 37 37 36 38 48 44 44 44 44 44 43 43 42 43
56 55 54 54 53 53 53 52 51 51 48 48 49 48 48 48 48 47 48 47 47 47 46 42 42 36 36 36 37 36 37 45 49 45 46 43 44 45 45 43 43 45
55 55 54 53 52 52 52 52 50 49 48 48 48 48 49 48 48 47 48 47 47 47 45 41 39 38 36 36 36 36 38 46 48 42 44 43 44 43 43 43 42 42
54 53 52 52 52 51 51 52 51 50 47 48 48 49 48 47 50 48 47 47 47 47 44 43 42 39 37 36 36 36 39 45 46 43 43 43 42 43 42 43 42 45
53 53 52 51 51 51 51 51 50 48 47 49 49 47 48 49 48 47 50 51 49 49 48 45 43 40 37 36 36 36 38 44 43 42 42 43 42 41 42 42 42 42
53 52 52 51 50 50 50 50 48 47 48 48 46 44 46 47 51 50 47 47 48 49 45 44 42 39 39 36 36 36 37 41 41 43 42 41 40 40 41 41 41 40

ECMWFNIL_sfc_dewp_126.txt.gz
Dewpoint
63 63 62 62 62 62 61 60 60 58 56 56 55 55 54 53 54 51 50 49 49 49 49 49 50 50 51 50 50 49 49 48 48 46 45 46 45 44 45 44 43 43
63 63 62 62 61 61 61 60 59 57 56 56 56 56 54 54 52 50 48 48 49 48 48 49 49 49 49 49 49 48 48 46 46 47 45 44 44 44 43 43 43 42
63 62 62 61 61 61 60 60 58 57 57 56 56 55 54 53 50 49 48 48 47 48 48 48 48 49 48 48 48 48 46 46 46 45 45 44 44 43 43 43 42 42
62 62 62 61 61 60 60 59 58 57 57 56 56 54 53 52 50 49 48 50 47 47 48 48 48 47 47 47 47 46 46 45 45 44 44 44 44 43 42 42 43 42
62 62 62 61 61 60 60 59 58 57 57 56 55 53 52 50 48 48 48 47 47 47 47 46 46 46 46 46 46 45 45 45 45 44 43 43 43 42 42 42 41 40
62 62 62 61 61 60 59 59 58 57 57 55 54 53 50 49 48 48 47 46 46 46 45 45 46 46 46 45 44 45 45 44 43 42 42 42 42 42 42 40 39 38
62 62 62 61 61 60 59 59 58 57 56 54 53 52 50 49 48 47 46 46 46 46 45 45 45 45 45 44 44 44 43 42 42 42 42 42 43 42 42 41 42 41
62 62 61 61 60 60 59 59 57 56 55 54 52 51 49 48 47 47 46 46 45 45 45 45 45 44 44 44 43 43 42 43 43 42 42 42 41 41 41 42 41 40
62 62 61 61 60 60 59 58 57 55 54 53 51 50 49 47 46 46 46 45 45 45 45 44 44 44 44 43 43 42 42 42 43 42 41 41 40 40 40 40 39 40
62 62 61 60 60 59 58 57 56 55 54 52 51 50 48 47 46 45 45 45 45 44 44 44 44 44 44 43 42 42 42 41 41 41 41 41 40 40 39 39 39 39
62 62 61 60 60 59 57 56 55 54 53 51 50 49 47 46 46 45 44 44 44 44 44 43 43 44 43 42 42 42 41 41 41 41 40 40 40 40 44 40 41 40
62 61 60 60 59 58 57 56 54 53 52 51 50 48 47 46 45 44 44 43 43 43 43 43 44 43 42 41 42 42 41 41 41 41 40 40 41 42 41 41 40 40
62 61 60 59 58 57 56 55 54 53 52 50 50 48 47 45 44 44 44 43 43 43 43 44 43 42 41 42 42 40 40 40 40 40 40 41 41 41 41 41 41 42
62 61 60 59 58 57 56 54 54 53 51 50 49 48 46 45 44 43 43 43 43 43 43 44 42 41 41 41 41 40 40 40 40 40 41 41 41 42 42 41 40 40
61 60 59 58 57 56 55 54 53 52 51 50 49 47 47 45 44 43 43 42 42 43 43 43 42 41 41 41 40 39 40 40 40 40 41 41 41 40 38 37 37 36
61 59 58 58 56 55 55 54 53 52 51 49 48 46 45 44 43 42 42 41 42 42 42 43 42 42 45 44 43 40 40 40 40 40 41 41 40 37 36 36 35 35
60 59 58 57 56 55 54 54 52 51 50 49 47 46 44 44 42 41 41 41 42 42 42 42 42 42 43 40 40 42 41 40 40 40 41 40 38 36 35 35 35 38
59 58 57 57 56 55 54 53 52 51 50 49 47 45 44 43 41 41 41 41 42 41 41 42 42 44 40 39 39 40 42 41 40 41 41 40 37 35 34 34 35 36
58 58 57 56 55 55 54 53 51 50 49 48 46 45 43 42 41 41 40 41 41 40 40 41 41 42 38 39 39 39 40 41 41 42 41 40 36 33 32 32 34 35
58 57 57 56 55 54 54 52 51 50 49 48 46 45 43 42 41 41 41 41 41 40 41 41 41 41 38 38 39 38 39 40 41 42 43 43 41 34 33 31 31 31
58 57 57 56 55 54 53 52 50 49 49 48 46 44 43 41 41 41 41 42 41 41 41 41 42 39 38 38 38 38 38 40 42 42 43 43 41 39 34 29 28 31
58 57 56 56 55 54 53 52 50 49 48 48 46 45 43 42 42 42 42 42 42 40 40 40 41 38 37 38 38 38 38 43 43 43 43 43 41 36 31 28 27 31
57 57 57 56 56 55 53 52 51 49 49 48 46 45 44 43 42 42 42 42 41 40 39 40 40 38 37 38 37 37 40 43 44 44 42 41 40 36 32 29 29 31
58 57 56 56 55 54 53 52 50 49 48 48 46 45 44 43 43 43 43 42 40 40 39 40 39 39 37 38 38 39 42 44 44 41 39 39 39 38 36 35 34 40
58 57 56 55 55 54 54 52 50 49 48 48 47 46 45 44 44 43 43 42 40 40 45 40 40 40 38 37 38 39 42 41 41 39 39 39 39 39 38 38 38 45
57 56 56 55 55 54 54 52 50 48 48 48 49 48 47 48 46 45 44 43 41 41 42 40 40 40 39 37 39 39 40 41 41 39 39 39 39 38 38 37 38 41

ECMWFNIL_sfc_dewp_129.txt.gz
Dewpoint
63 63 63 63 63 63 62 62 61 60 59 57 56 56 56 55 54 52 51 51 51 50 50 51 51 51 51 50 50 49 48 47 47 45 45 45 44 43 43 42 41 41
62 63 63 63 62 62 62 62 61 60 58 57 56 55 55 54 53 51 50 50 51 49 50 50 50 50 50 49 48 48 47 46 46 47 45 44 44 43 43 42 42 42
62 62 62 62 62 62 61 61 61 60 58 56 55 55 54 53 51 50 49 49 49 49 49 49 50 50 49 49 48 48 46 45 45 45 45 44 43 43 42 42 41 41
63 62 62 62 62 61 61 60 60 58 57 56 55 55 54 53 50 49 49 51 48 48 48 49 49 49 48 48 47 46 45 45 45 44 44 44 44 43 42 42 43 41
62 62 62 62 62 61 61 60 59 58 56 56 55 54 54 51 49 48 48 48 47 47 48 48 48 48 48 47 46 45 45 44 44 44 43 43 42 42 42 42 40 39
63 62 62 62 62 61 60 60 58 57 56 56 55 54 52 50 48 48 48 47 47 47 47 47 47 47 47 46 45 45 45 44 44 43 42 42 42 42 42 40 39 38
62 62 62 62 61 61 60 59 58 57 56 56 54 53 51 49 48 47 46 47 46 47 46 46 46 46 46 45 45 44 44 43 43 42 41 41 42 41 40 39 38 37
62 62 62 61 61 60 60 59 58 57 56 55 54 52 50 49 48 47 46 46 46 46 46 46 46 46 45 45 45 44 43 43 42 41 41 41 41 40 40 40 38 38
62 62 62 61 61 60 60 59 58 57 56 55 53 51 50 49 48 47 46 46 46 45 45 45 45 45 44 44 44 43 42 42 42 41 41 41 40 40 40 40 40 40
62 62 62 61 61 60 60 59 58 57 56 55 53 51 49 49 48 47 46 45 45 45 45 45 45 44 44 44 43 42 42 42 42 41 41 40 40 40 40 40 39 39
62 62 61 61 61 60 60 59 58 57 55 54 52 50 49 48 48 47 46 45 45 44 44 44 44 44 43 43 43 42 42 42 41 41 41 40 40 40 43 39 39 38
62 62 61 61 61 60 59 59 57 56 55 54 52 50 49 48 47 46 45 44 45 44 44 44 44 43 43 42 42 42 42 42 42 41 41 40 40 40 41 40 39 39
62 62 61 61 60 60 59 58 56 55 54 53 52 50 48 47 46 45 46 44 44 44 44 44 43 43 43 42 42 42 41 41 41 41 41 40 40 41 40 40 40 40
62 62 61 61 60 60 59 57 56 55 54 52 51 49 48 46 45 45 45 44 44 44 44 44 43 43 42 42 42 41 41 41 41 40 40 40 40 40 40 40 40 41
62 62 61 61 60 59 58 57 56 54 53 52 51 49 48 46 45 45 44 44 44 44 44 44 43 42 42 42 41 41 41 40 40 41 40 41 40 40 39 39 39 40
62 62 61 60 59 58 57 56 55 54 53 51 50 49 48 46 45 44 44 43 43 43 43 44 43 43 45 45 44 41 40 40 41 40 41 41 41 39 38 38 38 38
62 61 61 60 59 58 57 56 55 53 52 51 50 49 48 46 45 44 43 43 43 43 43 43 43 43 43 41 40 42 41 40 40 41 41 41 39 38 37 37 36 38
62 61 60 59 59 58 57 56 54 53 52 50 49 48 47 46 44 43 43 43 43 43 43 43 42 44 40 40 39 40 42 41 40 41 41 39 38 38 39 38 40 41
62 61 60 59 58 57 56 55 54 53 52 50 49 48 46 45 44 43 43 42 42 42 42 43 42 41 40 39 39 39 40 41 41 42 43 42 41 40 40 39 39 40
61 60 59 58 58 57 56 55 54 53 51 50 49 47 46 45 44 43 42 42 42 42 42 42 42 42 39 39 39 39 39 40 42 43 43 42 41 39 37 38 41 41
61 60 59 58 57 57 56 54 53 52 51 50 48 46 45 44 43 42 42 42 42 42 41 42 42 41 39 38 38 38 38 40 42 43 42 40 39 38 38 38 39 39
60 59 59 58 57 56 55 54 53 52 51 50 48 47 45 44 43 42 41 41 41 41 41 41 42 39 38 38 38 38 38 42 42 43 42 41 40 39 39 39 38 34
60 59 58 57 57 56 55 54 53 52 51 50 48 46 45 43 42 41 41 41 41 41 41 41 41 40 38 38 38 38 39 41 42 43 43 42 42 41 38 34 32 31
60 59 58 57 57 56 55 54 53 52 51 49 48 45 44 43 42 41 41 41 41 40 40 41 41 40 38 38 38 38 40 42 43 43 42 41 41 39 36 32 31 37
59 59 58 57 56 56 55 54 53 52 51 50 48 46 46 44 42 41 41 41 41 40 45 41 40 40 38 37 37 38 40 41 42 41 41 40 40 39 36 34 30 36
59 58 58 57 57 56 55 54 52 51 50 50 49 48 47 45 43 41 41 41 41 41 42 41 40 40 39 37 37 38 39 41 41 39 39 39 39 38 38 36 34 33

ECMWFNIL_sfc_dewp_132.txt.gz
Dewpoint
63 63 63 63 63 63 62 62 61 61 60 60 59 59 58 58 56 55 55 55 55 54 53 53 53 53 52 51 52 51 50 50 49 48 49 49 48 48 47 46 46 47
63 63 63 63 63 63 62 62 62 61 60 59 59 58 57 57 55 54 54 54 54 52 52 52 52 52 51 50 50 49 49 48 48 48 47 47 46 46 46 45 45 45
63 63 63 63 63 62 62 62 62 61 60 59 58 57 57 56 54 53 53 53 52 51 51 52 52 52 51 50 49 50 48 47 47 47 47 45 46 45 45 44 44 44
63 63 63 63 63 62 62 62 61 60 59 58 57 57 56 55 53 52 52 54 51 51 51 51 51 51 50 49 49 48 47 47 46 47 46 46 46 45 44 44 45 44
62 63 63 63 63 62 62 62 61 60 59 58 57 56 56 54 52 51 51 51 50 50 50 50 50 50 50 49 48 47 47 46 46 45 45 44 45 44 44 44 43 42
63 63 63 63 62 62 62 61 61 60 59 57 57 56 55 53 51 50 50 49 49 49 49 49 49 49 49 48 47 47 46 45 45 45 44 44 44 44 44 43 41 41
63 63 63 63 62 62 62 61 60 59 58 58 56 55 54 52 51 50 49 49 48 49 48 49 48 48 48 47 47 46 46 45 44 44 43 43 44 43 42 41 41 40
63 63 63 62 62 62 61 61 60 59 58 57 56 55 53 51 50 49 49 48 48 48 48 48 48 48 47 47 46 45 45 45 44 43 43 43 43 41 41 41 41 39
63 63 62 62 62 61 61 60 60 59 58 57 56 54 53 51 50 49 48 47 47 47 47 47 47 47 47 46 46 45 44 44 44 43 43 43 42 41 40 40 40 41
63 62 62 62 62 61 61 60 59 58 57 57 55 53 52 51 49 48 47 47 47 47 46 47 47 47 46 46 45 44 44 43 43 43 43 42 41 40 40 40 40 39
63 62 62 62 61 61 61 60 59 58 57 56 55 53 52 50 49 48 47 47 47 46 46 46 46 46 45 45 45 45 44 43 43 42 43 42 41 41 43 40 41 39
63 62 62 62 61 61 61 60 59 58 57 56 54 53 51 50 49 48 47 46 46 46 46 46 46 45 45 45 44 44 44 44 43 43 42 41 41 42 42 41 41 40
62 62 62 62 61 61 61 60 59 58 57 56 54 53 51 50 49 48 48 46 46 46 45 45 45 45 45 44 44 43 43 43 43 42 42 42 41 42 41 41 41 41
63 62 62 62 62 61 61 60 59 58 57 56 54 52 51 50 49 48 48 47 46 45 46 46 45 44 44 44 43 43 43 42 43 43 42 42 42 42 42 41 41 41
63 62 62 62 61 61 60 60 59 58 57 55 54 53 52 50 49 48 47 46 46 46 45 45 45 44 44 43 43 43 43 42 42 42 42 42 42 41 41 42 42 42
63 62 62 62 61 61 60 59 58 57 56 55 54 53 51 50 49 48 47 46 45 45 45 45 45 44 46 45 44 43 42 42 42 42 42 42 42 41 41 41 41 42
62 62 62 61 61 60 60 59 58 57 56 54 54 52 51 50 48 47 46 46 45 45 44 45 45 44 44 41 41 43 43 42 42 42 42 42 42 41 40 40 40 42
62 62 62 61 61 60 59 58 57 56 55 54 53 52 51 49 48 47 47 46 45 44 45 45 44 44 41 40 40 40 43 43 42 42 42 42 42 41 41 42 42 43
63 62 62 61 61 60 59 58 57 56 54 53 52 51 50 49 48 47 46 46 45 44 44 44 44 42 40 40 40 40 40 42 42 43 44 43 42 42 42 42 42 43
63 62 61 61 60 59 58 57 56 55 54 53 52 51 50 49 48 47 46 45 45 44 44 44 44 42 40 40 39 39 39 40 42 43 44 42 42 41 41 41 43 44
62 62 61 61 60 59 58 57 56 55 54 53 52 51 49 48 47 46 46 45 45 44 44 44 44 41 39 39 39 39 38 40 43 43 43 42 42 42 41 41 42 44
62 62 61 60 60 59 58 57 56 55 54 53 52 51 50 49 47 47 45 45 45 44 44 43 44 39 39 39 38 38 38 42 43 43 43 42 42 41 41 43 43 43
62 61 60 60 59 58 58 57 56 55 54 53 51 51 50 49 47 46 45 45 44 44 43 43 43 40 38 38 38 38 39 42 43 43 43 42 42 42 41 42 42 41
62 61 60 59 59 58 57 57 56 55 54 52 51 50 49 48 47 48 46 44 44 43 43 43 43 41 38 38 38 38 40 42 43 43 42 42 42 41 41 40 40 43
62 61 60 59 59 58 57 57 56 55 54 52 52 51 50 49 47 47 44 44 43 43 46 43 42 41 38 38 38 38 40 42 42 42 41 41 41 40 40 38 37 43
61 60 60 59 59 58 57 57 56 55 53 52 51 51 50 49 48 48 45 44 43 43 44 43 42 42 40 38 38 38 39 42 42 41 40 40 41 40 39 38 37 37

ECMWFNIL_sfc_dewp_135.txt.gz
Dewpoint
66 66 65 66 66 66 66 65 66 66 66 66 65 65 65 65 64 65 65 65 64 64 63 63 62 62 61 60 61 61 60 62 62 62 61 61 60 61 59 59 59 58
66 66 66 66 66 66 66 67 66 66 66 66 66 66 66 65 64 64 64 63 63 62 62 62 61 61 60 59 59 59 58 59 59 58 59 60 60 59 59 59 59 58
66 66 66 66 66 66 67 67 67 67 66 66 66 66 65 64 63 63 63 63 62 61 61 61 60 59 59 58 58 58 58 58 58 56 57 58 58 58 59 58 57 57
66 66 65 66 66 66 66 66 66 66 66 65 65 65 64 63 63 62 62 61 61 60 60 59 59 58 57 57 57 57 57 56 56 56 56 56 56 56 56 55 55 54
66 65 65 65 65 66 67 66 66 66 65 65 65 64 63 62 62 60 61 60 61 59 59 58 58 58 57 56 56 56 55 54 54 54 53 53 54 54 54 53 52 52
66 64 64 64 65 65 65 65 65 65 65 65 64 63 62 62 60 59 60 59 59 58 57 57 57 57 56 56 56 56 54 53 53 53 51 52 51 51 51 51 51 50
65 65 65 64 65 65 65 65 65 65 64 64 63 62 61 60 60 59 58 58 57 56 56 56 56 56 56 56 55 55 54 53 52 50 49 50 50 50 49 49 48 47
65 65 64 64 65 65 65 64 64 65 65 63 63 62 60 59 59 58 58 57 55 55 55 55 55 55 55 55 54 54 54 53 52 50 49 49 50 47 47 48 50 45
65 64 64 65 65 65 65 64 64 65 64 63 62 61 60 59 58 58 57 55 55 55 54 54 54 54 54 54 54 53 51 52 51 50 50 50 49 47 44 47 46 47
64 64 64 64 64 64 64 65 64 64 63 63 62 61 59 59 58 56 56 55 54 53 53 53 53 54 53 52 51 51 50 50 50 50 50 49 47 46 44 45 45 46
64 64 64 64 64 64 64 65 64 64 63 62 62 60 59 58 56 55 55 54 55 53 52 52 52 52 51 51 52 52 50 50 49 48 49 48 48 46 46 45 46 46
64 64 64 64 64 64 64 64 64 63 62 62 61 59 58 57 56 54 53 53 53 52 51 51 51 51 50 50 49 50 51 50 49 49 48 47 47 47 45 46 46 45
64 64 64 64 63 63 64 63 63 63 62 61 61 59 58 56 55 53 53 53 52 52 51 51 50 50 50 50 49 49 49 49 49 49 48 48 46 45 45 45 45 45
64 64 64 64 64 64 63 63 63 62 62 62 60 59 58 56 54 54 53 52 52 52 51 51 51 50 50 50 49 49 49 49 48 49 47 47 48 46 46 46 46 46
64 64 64 64 63 63 63 63 62 62 62 61 60 59 58 56 55 54 53 52 51 52 51 51 51 51 49 50 49 48 49 48 48 46 47 46 46 46 46 45 45 45
64 64 63 63 63 63 63 63 62 61 60 60 59 59 57 56 54 54 52 51 51 50 50 52 51 52 50 48 48 49 48 47 48 48 46 46 46 46 45 45 45 45
64 63 63 63 63 63 63 62 61 61 60 59 59 58 57 56 55 53 52 51 50 50 50 51 51 50 45 42 42 45 48 49 48 47 46 46 46 46 45 45 45 44
63 63 63 63 63 62 62 61 61 61 60 60 59 58 57 56 54 53 52 52 51 50 51 51 51 47 41 41 41 42 45 48 48 47 47 46 45 45 45 45 45 47
63 63 63 63 62 62 62 61 61 60 59 58 58 58 57 55 53 53 53 52 52 51 51 50 51 42 41 41 40 40 42 46 47 47 47 46 46 45 44 45 46 46
63 63 63 62 62 62 62 61 60 60 60 59 58 57 56 55 54 54 53 52 52 52 52 51 51 43 40 40 40 40 40 43 47 48 47 47 46 45 46 45 46 46
63 63 63 62 62 62 61 60 60 60 59 58 58 57 56 54 54 54 53 52 52 52 52 52 51 41 40 39 39 39 39 41 48 48 48 47 47 46 46 47 46 46
63 63 62 62 62 61 61 60 60 60 59 59 58 57 56 55 53 54 53 52 52 52 52 51 50 40 39 39 39 39 39 45 48 48 47 46 46 46 45 46 47 49
63 63 62 62 62 61 60 60 60 60 59 58 57 56 55 54 53 53 53 52 52 51 51 51 49 41 39 39 39 38 40 45 47 45 46 46 46 46 45 47 49 47
63 63 62 62 61 61 60 61 60 60 59 57 57 56 55 54 53 53 53 52 51 50 50 50 48 42 39 39 38 38 42 46 45 45 46 46 46 46 45 46 46 47
64 63 62 62 61 61 61 61 60 60 59 58 57 56 55 54 53 53 52 51 50 50 49 49 48 43 39 38 38 38 43 47 44 44 45 45 45 45 45 44 45 47
64 63 62 62 61 61 61 61 61 60 60 58 58 56 56 54 53 53 51 50 50 49 50 50 49 45 41 38 38 38 41 45 45 44 44 45 44 42 43 44 44 45